M I D A S
Marine Information and Data Acquisition System
Tripno 796 of the Zeeleeuw from 2004-10-26 06:30:00 to 2004-10-26 17:40:00
Back to CruiseResearch ActivitiesStationsMapUnderway DataData graphs

EquipmentUnitsComment
TimeDGPSUTC
LatitudeDGPSDM.mWGS84
LongitudeDGPSDM.mWGS84
TemperatureSBE03/SBE38deg celciusITS90
ConductivitySBE21S/mITS90
SalinitySBE21 Practical Salinity Units
ChlorophylAChelsea fluorimeterg/lCalibrated in Aceton
Missing or incorrect values are displayed as -999
Sea surface data collected by the RV Zeeleeuw from 2004-10-26 06:30:00 to 2004-10-26 17:40:00
                                                                                    Next 1000 lines
Time Latitude Longitude Temperature Conductivity Salinity ChlorophylA
2004-10-26 06:30:11 51°13.596 2°56.113 18.881802 0.003003 0.021543 -0.814958
2004-10-26 06:30:15 51°13.596 2°56.113 18.881802 0.003003 0.021543 -0.814958
2004-10-26 06:30:19 51°13.596 2°56.113 18.883495 0.003003 0.021543 -0.848668
2004-10-26 06:30:26 51°13.596 2°56.112 18.884119 0.003003 0.021543 -0.814958
2004-10-26 06:30:30 51°13.596 2°56.112 18.884654 0.003003 0.021543 -0.848668
2004-10-26 06:30:36 51°13.596 2°56.112 18.885634 0.003003 0.021543 -0.848668
2004-10-26 06:30:41 51°13.596 2°56.112 18.884565 0.003003 0.021543 -0.814958
2004-10-26 06:30:45 51°13.596 2°56.112 18.884565 0.003003 0.021543 -0.814958
2004-10-26 06:30:50 51°13.596 2°56.112 18.885946 0.003003 0.021543 -0.848668
2004-10-26 06:30:56 51°13.596 2°56.112 18.885724 0.003003 0.021543 -0.814958
2004-10-26 06:30:58 51°13.596 2°56.112 18.884431 0.003003 0.021543 -0.848668
2004-10-26 06:31:06 51°13.597 2°56.112 18.887551 0.003003 0.021543 -0.848668
2004-10-26 06:31:10 51°13.596 2°56.112 18.889244 0.003003 0.021543 -0.814958
2004-10-26 06:31:14 51°13.596 2°56.112 18.889244 0.003003 0.021543 -0.814958
2004-10-26 06:31:20 51°13.596 2°56.112 18.890492 0.003003 0.021543 -0.848668
2004-10-26 06:31:26 51°13.596 2°56.112 18.889779 0.003003 0.021543 -0.814958
2004-10-26 06:31:31 51°13.596 2°56.112 18.893254 0.003003 0.021543 -0.814958
2004-10-26 06:31:36 51°13.596 2°56.112 18.896953 0.003003 0.021543 -0.814958
2004-10-26 06:31:40 51°13.596 2°56.112 18.89869 0.003003 0.021543 -0.814958
2004-10-26 06:31:44 51°13.596 2°56.112 18.89869 0.003003 0.021543 -0.814958
2004-10-26 06:31:51 51°13.596 2°56.112 18.8982 0.003003 0.021543 -0.848668
2004-10-26 06:31:55 51°13.596 2°56.112 18.902656 0.003003 0.021543 -0.814958
2004-10-26 06:32:00 51°13.595 2°56.112 18.903636 0.003003 0.021543 -0.848668
2004-10-26 06:32:04 51°13.595 2°56.112 18.901453 0.003003 0.021543 -0.848668
2004-10-26 06:32:11 51°13.596 2°56.112 18.902745 0.003003 0.021543 -0.814958
2004-10-26 06:32:15 51°13.596 2°56.112 18.902745 0.003003 0.021543 -0.814958
2004-10-26 06:32:18 51°13.596 2°56.112 18.901096 0.003003 0.021543 -0.848668
2004-10-26 06:32:26 51°13.596 2°56.112 18.902789 0.003003 0.021543 -0.848668
2004-10-26 06:32:33 51°13.597 2°56.112 18.905953 0.003003 0.021543 -0.848668
2004-10-26 06:32:38 51°13.597 2°56.112 18.904171 0.003003 0.021543 -0.848668
2004-10-26 06:32:43 51°13.597 2°56.112 18.905151 0.003003 0.021543 -0.848668
2004-10-26 06:32:57 51°13.597 2°56.112 18.905507 0.003003 0.021543 -0.814958
2004-10-26 06:33:00 51°13.597 2°56.112 18.907334 0.003003 0.021543 -0.814958
2004-10-26 06:33:06 51°13.597 2°56.112 18.907245 0.003003 0.021543 -0.848668
2004-10-26 06:33:10 51°13.597 2°56.112 18.906621 0.003003 0.021543 -0.814958
2004-10-26 06:33:17 51°13.596 2°56.112 18.90965 0.003003 0.021543 -0.814958
2004-10-26 06:33:20 51°13.596 2°56.112 18.90965 0.003003 0.021543 -0.814958
2004-10-26 06:33:26 51°13.596 2°56.112 18.911031 0.003003 0.021543 -0.848668
2004-10-26 06:33:30 51°13.596 2°56.112 18.90965 0.003003 0.021543 -0.814958
2004-10-26 06:33:36 51°13.596 2°56.112 18.911878 0.003003 0.021543 -0.814958
2004-10-26 06:33:42 51°13.597 2°56.112 18.911076 0.003003 0.021543 -0.848668
2004-10-26 06:33:46 51°13.597 2°56.112 18.912546 0.003003 0.021543 -0.848668
2004-10-26 06:33:50 51°13.597 2°56.112 18.912546 0.003003 0.021543 -0.848668
2004-10-26 06:33:55 51°13.597 2°56.112 18.912858 0.003003 0.021543 -0.814958
2004-10-26 06:34:02 51°13.597 2°56.112 18.912858 0.003003 0.021543 -0.814958
2004-10-26 06:34:07 51°13.597 2°56.112 18.911388 0.003003 0.021543 -0.848668
2004-10-26 06:34:11 51°13.597 2°56.113 18.914239 0.003003 0.021543 -0.814958
2004-10-26 06:34:14 51°13.597 2°56.112 18.916243 0.003003 0.021543 -0.814958
2004-10-26 06:34:26 51°13.597 2°56.112 18.916778 0.003003 0.021543 -0.848668
2004-10-26 06:34:30 51°13.597 2°56.112 18.916911 0.003003 0.021543 -0.814958
2004-10-26 06:34:40 51°13.596 2°56.112 18.918827 0.003003 0.021543 -0.848668
2004-10-26 06:34:46 51°13.596 2°56.112 18.918827 0.003003 0.021543 -0.848668
2004-10-26 06:34:51 51°13.596 2°56.112 18.91709 0.003003 0.021543 -0.848668
2004-10-26 06:34:55 51°13.596 2°56.112 18.917624 0.003003 0.021543 -0.848668
2004-10-26 06:34:59 51°13.597 2°56.113 18.916065 0.003003 0.021543 -0.848668
2004-10-26 06:35:03 51°13.597 2°56.113 18.915397 0.003003 0.021543 -0.814958
2004-10-26 06:35:16 51°13.598 2°56.113 18.917624 0.003003 0.021543 -0.848668
2004-10-26 06:35:20 51°13.598 2°56.113 18.916332 0.003003 0.021543 -0.814958
2004-10-26 06:35:26 51°13.597 2°56.112 18.918069 0.003003 0.021543 -0.848668
2004-10-26 06:35:31 51°13.596 2°56.112 18.920608 0.003003 0.021543 -0.814958
2004-10-26 06:35:36 51°13.595 2°56.112 18.92239 0.003003 0.021543 -0.814958
2004-10-26 06:35:38 51°13.595 2°56.112 18.919228 0.003003 0.021543 -0.814958
2004-10-26 06:35:46 51°13.595 2°56.112 18.919228 0.003003 0.021543 -0.814958
2004-10-26 06:35:50 51°13.595 2°56.112 18.921633 0.003003 0.021543 -0.848668
2004-10-26 06:35:54 51°13.595 2°56.112 18.920074 0.003003 0.021543 -0.848668
2004-10-26 06:36:00 51°13.596 2°56.112 18.919851 0.003003 0.021543 -0.848668
2004-10-26 06:36:06 51°13.596 2°56.112 18.923637 0.003003 0.021543 -0.848668
2004-10-26 06:36:11 51°13.596 2°56.112 18.923014 0.003003 0.021543 -0.848668
2004-10-26 06:36:14 51°13.596 2°56.112 18.923014 0.003003 0.021543 -0.848668
2004-10-26 06:36:24 51°13.595 2°56.112 18.9219 0.003003 0.021543 -0.848668
2004-10-26 06:36:29 51°13.595 2°56.112 18.924216 0.003003 0.021543 -0.848668
2004-10-26 06:36:34 51°13.595 2°56.113 18.924216 0.003003 0.021543 -0.848668
2004-10-26 06:36:38 51°13.595 2°56.113 18.923771 0.003003 0.021543 -0.848668
2004-10-26 06:36:47 51°13.594 2°56.113 18.927824 0.003003 0.021543 -0.814958
2004-10-26 06:36:52 51°13.594 2°56.113 18.929427 0.003003 0.021543 -0.814958
2004-10-26 06:36:58 51°13.594 2°56.113 18.929427 0.003003 0.021543 -0.814958
2004-10-26 06:37:03 51°13.594 2°56.113 18.929071 0.003003 0.021543 -0.848668
2004-10-26 06:37:06 51°13.594 2°56.113 18.927824 0.003003 0.021543 -0.814958
2004-10-26 06:37:10 51°13.594 2°56.113 18.929962 0.003003 0.021543 -0.814958
2004-10-26 06:37:18 51°13.594 2°56.113 18.930452 0.003003 0.021543 -0.814958
2004-10-26 06:37:26 51°13.594 2°56.113 18.932055 0.003003 0.021543 -0.814958
2004-10-26 06:37:32 51°13.594 2°56.113 18.931743 0.003003 0.021543 -0.848668
2004-10-26 06:37:38 51°13.594 2°56.113 18.932545 0.003003 0.021543 -0.848668
2004-10-26 06:37:42 51°13.594 2°56.113 18.932277 0.003003 0.021543 -0.814958
2004-10-26 06:37:52 51°13.594 2°56.113 18.931832 0.003003 0.021543 -0.848668
2004-10-26 06:37:56 51°13.594 2°56.113 18.93535 0.003003 0.021543 -0.814958
2004-10-26 06:38:02 51°13.594 2°56.113 18.936107 0.003003 0.021543 -0.848668
2004-10-26 06:38:07 51°13.594 2°56.113 18.936909 0.003003 0.021543 -0.848668
2004-10-26 06:38:12 51°13.594 2°56.113 18.936597 0.003003 0.021543 -0.848668
2004-10-26 06:38:16 51°13.593 2°56.113 18.934371 0.003003 0.021543 -0.848668
2004-10-26 06:38:22 51°13.593 2°56.113 18.934371 0.003003 0.021543 -0.848668
2004-10-26 06:38:27 51°13.593 2°56.113 18.9325 0.003003 0.021543 -0.814958
2004-10-26 06:38:32 51°13.593 2°56.113 18.933658 0.003003 0.021543 -0.814958
2004-10-26 06:38:37 51°13.593 2°56.113 18.933346 0.003003 0.021543 -0.848668
2004-10-26 06:38:42 51°13.592 2°56.113 18.935885 0.003003 0.021543 -0.848668
2004-10-26 06:38:46 51°13.592 2°56.113 18.935306 0.003003 0.021543 -0.848668
2004-10-26 06:38:50 51°13.592 2°56.112 18.935306 0.003003 0.021543 -0.848668
2004-10-26 06:38:55 51°13.592 2°56.113 18.93535 0.003003 0.021543 -0.848668
2004-10-26 06:39:02 51°13.593 2°56.113 18.933124 0.003003 0.021543 -0.848668
2004-10-26 06:39:07 51°13.593 2°56.113 18.934682 0.003003 0.021543 -0.848668
2004-10-26 06:39:12 51°13.593 2°56.113 18.932901 0.003003 0.021543 -0.814958
2004-10-26 06:39:15 51°13.593 2°56.113 18.934816 0.003003 0.021543 -0.814958
2004-10-26 06:39:22 51°13.593 2°56.113 18.934816 0.003003 0.021543 -0.814958
2004-10-26 06:39:26 51°13.594 2°56.113 18.934593 0.003003 0.021543 -0.814958
2004-10-26 06:39:31 51°13.594 2°56.113 18.935039 0.003003 0.021543 -0.848668
2004-10-26 06:39:35 51°13.594 2°56.113 18.941585 0.003003 0.021543 -0.814958
2004-10-26 06:39:42 51°13.593 2°56.113 18.926354 0.003003 0.021543 -0.848668
2004-10-26 06:39:43 51°13.593 2°56.113 18.937265 0.003003 0.021543 -0.848668
2004-10-26 06:39:55 51°13.593 2°56.113 18.945191 0.003003 0.021543 -0.814958
2004-10-26 06:39:59 51°13.594 2°56.114 18.946883 0.003003 0.021543 -0.848668
2004-10-26 06:40:06 51°13.594 2°56.114 18.947017 0.003003 0.021543 -0.814958
2004-10-26 06:40:11 51°13.595 2°56.114 18.949243 0.003003 0.021543 -0.848668
2004-10-26 06:40:15 51°13.596 2°56.114 18.949243 0.003003 0.021543 -0.848668
2004-10-26 06:40:20 51°13.595 2°56.114 18.950045 0.003003 0.021543 -0.814958
2004-10-26 06:40:26 51°13.595 2°56.114 18.94911 0.003003 0.021543 -0.814958
2004-10-26 06:40:31 51°13.595 2°56.114 18.951247 0.003003 0.021543 -0.814958
2004-10-26 06:40:36 51°13.595 2°56.114 18.952048 0.003003 0.021543 -0.848668
2004-10-26 06:40:38 51°13.595 2°56.114 18.955476 0.003003 0.021543 -0.848668
2004-10-26 06:40:46 51°13.595 2°56.113 18.955476 0.003003 0.021543 -0.848668
2004-10-26 06:40:50 51°13.595 2°56.113 18.959706 0.003003 0.021543 -0.814958
2004-10-26 06:40:54 51°13.596 2°56.114 18.972659 0.003003 0.021543 -0.814958
2004-10-26 06:41:00 51°13.596 2°56.114 18.969454 0.003003 0.021543 -0.848668
2004-10-26 06:41:06 51°13.596 2°56.114 18.96487 0.003003 0.021543 -0.814958
2004-10-26 06:41:11 51°13.596 2°56.114 18.966383 0.003003 0.021543 -0.848668
2004-10-26 06:41:14 51°13.596 2°56.114 18.966383 0.003003 0.021543 -0.848668
2004-10-26 06:41:20 51°13.596 2°56.114 18.983741 0.003003 0.021543 -0.848668
2004-10-26 06:41:26 51°13.596 2°56.114 18.977911 0.003003 0.021543 -0.814958
2004-10-26 06:41:31 51°13.596 2°56.114 18.983118 0.003003 0.021543 -0.848668
2004-10-26 06:41:36 51°13.596 2°56.113 18.979647 0.003003 0.021543 -0.848668
2004-10-26 06:41:38 51°13.596 2°56.113 18.978846 0.003003 0.021543 -0.814958
2004-10-26 06:41:46 51°13.596 2°56.113 18.978846 0.003003 0.021543 -0.814958
2004-10-26 06:41:50 51°13.596 2°56.113 18.982584 0.003003 0.021542 -0.848668
2004-10-26 06:41:54 51°13.595 2°56.113 18.984809 0.003003 0.021542 -0.882377
2004-10-26 06:42:00 51°13.595 2°56.113 18.986589 0.003003 0.021542 -0.814958
2004-10-26 06:42:04 51°13.595 2°56.113 18.989348 0.003003 0.021542 -0.814958
2004-10-26 06:42:11 51°13.596 2°56.113 18.974217 0.003003 0.021542 -0.814958
2004-10-26 06:42:14 51°13.596 2°56.112 18.974217 0.003003 0.021542 -0.814958
2004-10-26 06:42:20 51°13.596 2°56.11 19.046285 0.003003 0.021542 -0.814958
2004-10-26 06:42:24 51°13.597 2°56.108 19.098289 0.003003 0.021542 -0.848668
2004-10-26 06:42:34 51°13.599 2°56.101 19.074826 0.003003 0.021542 -0.814958
2004-10-26 06:42:41 51°13.601 2°56.095 19.093624 0.003003 0.021542 -0.848668
2004-10-26 06:42:46 51°13.603 2°56.09 19.093624 0.003003 0.021542 -0.848668
2004-10-26 06:42:51 51°13.605 2°56.084 19.087003 0.003003 0.021542 -0.848668
2004-10-26 06:42:56 51°13.606 2°56.078 19.033211 0.003003 0.021542 -0.848668
2004-10-26 06:42:59 51°13.608 2°56.075 19.083403 0.003003 0.021542 -0.848668
2004-10-26 06:43:06 51°13.61 2°56.066 19.069803 0.003003 0.021542 -0.814958
2004-10-26 06:43:11 51°13.612 2°56.06 19.065491 0.003003 0.021542 -0.848668
2004-10-26 06:43:16 51°13.614 2°56.053 19.065491 0.003003 0.021542 -0.848668
2004-10-26 06:43:20 51°13.615 2°56.047 19.04962 0.003003 0.021542 -0.848668
2004-10-26 06:43:26 51°13.617 2°56.038 19.033167 0.003003 0.021542 -0.814958
2004-10-26 06:43:30 51°13.619 2°56.031 19.057845 0.003003 0.021542 -0.848668
2004-10-26 06:43:35 51°13.62 2°56.023 19.05082 0.003003 0.021542 -0.814958
2004-10-26 06:43:39 51°13.622 2°56.016 19.049842 0.003003 0.021542 -0.814958
2004-10-26 06:43:46 51°13.625 2°56.004 19.049842 0.003003 0.021542 -0.814958
2004-10-26 06:43:51 51°13.627 2°55.996 19.076248 0.003003 0.021542 -0.848668
2004-10-26 06:43:54 51°13.629 2°55.99 19.06189 0.003003 0.021542 -0.848668
2004-10-26 06:44:00 51°13.632 2°55.98 19.044996 0.003003 0.021542 -0.814958
2004-10-26 06:44:06 51°13.635 2°55.969 19.051443 0.003003 0.021542 -0.882377
2004-10-26 06:44:11 51°13.638 2°55.96 19.054466 0.003003 0.021542 -0.814958
2004-10-26 06:44:14 51°13.639 2°55.955 19.054466 0.003003 0.021542 -0.814958
2004-10-26 06:44:21 51°13.643 2°55.942 19.070114 0.003003 0.021542 -0.848668
2004-10-26 06:44:26 51°13.646 2°55.933 19.093535 0.003003 0.021542 -0.848668
2004-10-26 06:44:30 51°13.648 2°55.926 19.087847 0.003003 0.021542 -0.848668
2004-10-26 06:44:36 51°13.651 2°55.916 19.077314 0.003003 0.021542 -0.814958
2004-10-26 06:44:39 51°13.653 2°55.911 19.06598 0.003003 0.021542 -0.848668
2004-10-26 06:44:46 51°13.656 2°55.899 19.06598 0.003003 0.021542 -0.848668
2004-10-26 06:44:51 51°13.659 2°55.891 19.065669 0.003003 0.021542 -0.814958
2004-10-26 06:44:56 51°13.661 2°55.882 19.067269 0.003003 0.021542 -0.848668
2004-10-26 06:45:00 51°13.663 2°55.876 19.06558 0.003003 0.021542 -0.814958
2004-10-26 06:45:06 51°13.665 2°55.866 19.065447 0.003003 0.021542 -0.814958
2004-10-26 06:45:11 51°13.667 2°55.858 19.069358 0.003003 0.021542 -0.848668
2004-10-26 06:45:16 51°13.668 2°55.85 19.069358 0.003003 0.021542 -0.848668
2004-10-26 06:45:18 51°13.669 2°55.846 19.071581 0.003003 0.021542 -0.848668
2004-10-26 06:45:26 51°13.671 2°55.832 19.073803 0.003003 0.021542 -0.814958
2004-10-26 06:45:31 51°13.673 2°55.824 19.077137 0.003003 0.021542 -0.848668
2004-10-26 06:45:36 51°13.674 2°55.816 19.077092 0.003003 0.021542 -0.848668
2004-10-26 06:45:40 51°13.675 2°55.809 19.069092 0.003003 0.021542 -0.848668
2004-10-26 06:45:46 51°13.677 2°55.799 19.069092 0.003003 0.021542 -0.848668
2004-10-26 06:45:51 51°13.678 2°55.791 19.071047 0.003003 0.021542 -0.848668
2004-10-26 06:45:56 51°13.679 2°55.783 19.075314 0.003003 0.021542 -0.814958
2004-10-26 06:45:59 51°13.68 2°55.778 19.075137 0.003003 0.021542 -0.814958
2004-10-26 06:46:06 51°13.681 2°55.769 19.08407 0.003003 0.021542 -0.848668
2004-10-26 06:46:11 51°13.682 2°55.763 19.088336 0.003003 0.021542 -0.814958
2004-10-26 06:46:15 51°13.683 2°55.76 19.088336 0.003003 0.021542 -0.814958
2004-10-26 06:46:19 51°13.683 2°55.758 19.101844 0.003003 0.021542 -0.848668
2004-10-26 06:46:25 51°13.684 2°55.756 19.095624 0.003003 0.021542 -0.848668
2004-10-26 06:46:30 51°13.684 2°55.756 19.103221 0.003003 0.021542 -0.848668
2004-10-26 06:46:35 51°13.684 2°55.757 19.117748 0.003003 0.021542 -0.848668
2004-10-26 06:46:40 51°13.685 2°55.758 19.14293 0.003003 0.021542 -0.814958
2004-10-26 06:46:46 51°13.687 2°55.761 19.14293 0.003003 0.021542 -0.814958
2004-10-26 06:46:51 51°13.689 2°55.763 19.152521 0.003003 0.021542 -0.848668
2004-10-26 06:46:56 51°13.692 2°55.766 19.161844 0.003003 0.021542 -0.848668
2004-10-26 06:47:00 51°13.694 2°55.768 19.129563 0.003003 0.021542 -0.848668
2004-10-26 06:47:04 51°13.696 2°55.769 19.016933 0.003003 0.021542 -0.814958
2004-10-26 06:47:10 51°13.699 2°55.771 19.08687 0.003003 0.021542 -0.848668
2004-10-26 06:47:16 51°13.701 2°55.772 19.08687 0.003003 0.021542 -0.848668
2004-10-26 06:47:19 51°13.701 2°55.772 19.108064 0.003003 0.021542 -0.814958
2004-10-26 06:47:26 51°13.701 2°55.772 19.12601 0.003003 0.021542 -0.814958
2004-10-26 06:47:30 51°13.701 2°55.772 19.022938 0.003003 0.021542 -0.848668
2004-10-26 06:47:36 51°13.7 2°55.771 19.039171 0.003003 0.021542 -0.814958
2004-10-26 06:47:42 51°13.698 2°55.771 19.07687 0.003003 0.021542 -0.814958
2004-10-26 06:47:46 51°13.697 2°55.77 19.07687 0.003003 0.021542 -0.814958
2004-10-26 06:47:54 51°13.694 2°55.769 19.095624 0.003003 0.021542 -0.814958
2004-10-26 06:47:58 51°13.693 2°55.769 19.095624 0.003003 0.021542 -0.814958
2004-10-26 06:48:06 51°13.693 2°55.769 19.150212 0.003003 0.021542 -0.848668
2004-10-26 06:48:10 51°13.693 2°55.769 19.150212 0.003003 0.021542 -0.848668
2004-10-26 06:48:15 51°13.695 2°55.769 19.155362 0.003003 0.021542 -0.814958
2004-10-26 06:48:19 51°13.697 2°55.768 19.231197 0.003003 0.021542 -0.814958
2004-10-26 06:48:24 51°13.7 2°55.767 19.276685 0.003003 0.021542 -0.848668
2004-10-26 06:48:30 51°13.705 2°55.763 19.273539 0.003003 0.021542 -0.848668
2004-10-26 06:48:35 51°13.71 2°55.758 19.221306 0.003003 0.021542 -0.814958
2004-10-26 06:48:40 51°13.716 2°55.752 19.221306 0.003003 0.021542 -0.814958
2004-10-26 06:48:44 51°13.72 2°55.746 19.159091 0.003003 0.021542 -0.848668
2004-10-26 06:48:50 51°13.728 2°55.737 19.113928 0.003003 0.021542 -0.848668
2004-10-26 06:48:55 51°13.736 2°55.728 19.087803 0.003003 0.021542 -0.882377
2004-10-26 06:49:00 51°13.744 2°55.72 19.041839 0.003003 0.021542 -0.848668
2004-10-26 06:49:04 51°13.752 2°55.713 19.026629 0.003003 0.021542 -0.814958
2004-10-26 06:49:10 51°13.762 2°55.701 19.026629 0.003003 0.021542 -0.814958
2004-10-26 06:49:15 51°13.771 2°55.692 18.98828 0.003003 0.021542 -0.848668
2004-10-26 06:49:19 51°13.778 2°55.684 19.051665 0.003003 0.021542 -0.814958
2004-10-26 06:49:23 51°13.786 2°55.676 19.022004 0.003003 0.021542 -0.814958
2004-10-26 06:49:30 51°13.8 2°55.662 18.998693 0.003003 0.021542 -0.848668
2004-10-26 06:49:35 51°13.81 2°55.653 18.993709 0.003003 0.021542 -0.814958
2004-10-26 06:49:40 51°13.821 2°55.643 18.993709 0.003003 0.021542 -0.814958
2004-10-26 06:49:44 51°13.829 2°55.636 19.047841 0.003003 0.021542 -0.814958
2004-10-26 06:49:50 51°13.843 2°55.625 19.026318 0.003003 0.021542 -0.848668
2004-10-26 06:49:55 51°13.853 2°55.616 19.040638 0.003003 0.021542 -0.814958
2004-10-26 06:49:59 51°13.862 2°55.609 19.04175 0.003003 0.021542 -0.848668
2004-10-26 06:50:04 51°13.874 2°55.601 19.055889 0.003003 0.021542 -0.848668
2004-10-26 06:50:15 51°13.9 2°55.584 19.058378 0.003003 0.021542 -0.814958
2004-10-26 06:50:20 51°13.914 2°55.578 19.054377 0.003003 0.021542 -0.882377
2004-10-26 06:50:26 51°13.928 2°55.569 19.037747 0.003003 0.021542 -0.814958
2004-10-26 06:50:30 51°13.937 2°55.563 19.038904 0.003003 0.021542 -0.814958
2004-10-26 06:50:34 51°13.945 2°55.558 19.073581 0.003003 0.021542 -0.814958
2004-10-26 06:50:40 51°13.958 2°55.551 19.102155 0.003003 0.021542 -0.814958
2004-10-26 06:50:44 51°13.965 2°55.545 19.102155 0.003003 0.021542 -0.814958
2004-10-26 06:50:51 51°13.979 2°55.535 19.129074 0.003003 0.021542 -0.814958
2004-10-26 06:50:54 51°13.985 2°55.534 19.113128 0.003003 0.021542 -0.848668
2004-10-26 06:50:59 51°13.994 2°55.528 19.129696 0.003003 0.021542 -0.848668
2004-10-26 06:51:06 51°14.007 2°55.52 19.139022 0.003003 0.021542 -0.848668
2004-10-26 06:51:10 51°14.013 2°55.516 19.113217 0.003003 0.021542 -0.814958
2004-10-26 06:51:15 51°14.022 2°55.511 19.113217 0.003003 0.021542 -0.814958
2004-10-26 06:51:20 51°14.031 2°55.506 19.127475 0.003003 0.021542 -0.848668
2004-10-26 06:51:26 51°14.042 2°55.5 19.11566 0.003003 0.021542 -0.814958
2004-10-26 06:51:30 51°14.049 2°55.496 19.13809 0.003003 0.021542 -0.814958
2004-10-26 06:51:34 51°14.056 2°55.492 19.134137 0.002899 0.021075 -0.814958
2004-10-26 06:51:40 51°14.067 2°55.485 19.129518 0.003003 0.021542 -0.848668
2004-10-26 06:51:44 51°14.074 2°55.481 19.129518 0.003003 0.021542 -0.848668
2004-10-26 06:51:51 51°14.086 2°55.473 19.1241 0.003003 0.021541 -0.814958
2004-10-26 06:51:56 51°14.095 2°55.468 19.123611 0.003003 0.021541 -0.848668
2004-10-26 06:51:59 51°14.1 2°55.464 19.125299 0.003003 0.021541 -0.848668
2004-10-26 06:52:06 51°14.113 2°55.456 19.129785 0.003003 0.021541 -0.848668
2004-10-26 06:52:11 51°14.122 2°55.45 19.133604 0.003003 0.021541 -0.814958
2004-10-26 06:52:15 51°14.13 2°55.444 19.133604 0.003003 0.021541 -0.814958
2004-10-26 06:52:21 51°14.141 2°55.436 19.162909 0.003003 0.021541 -0.848668
2004-10-26 06:52:26 51°14.151 2°55.427 19.146749 0.003003 0.021541 -0.814958
2004-10-26 06:52:31 51°14.161 2°55.418 19.126854 0.003003 0.021541 -0.848668
2004-10-26 06:52:36 51°14.172 2°55.409 19.195441 0.003003 0.021541 -0.848668
2004-10-26 06:52:40 51°14.18 2°55.4 19.151544 0.002899 0.021074 -0.814958
2004-10-26 06:52:46 51°14.193 2°55.387 19.151544 0.002899 0.021074 -0.814958
2004-10-26 06:52:51 51°14.205 2°55.376 19.117615 0.003003 0.021541 -0.814958
2004-10-26 06:52:55 51°14.214 2°55.367 19.142219 0.002899 0.021074 -0.848668
2004-10-26 06:53:00 51°14.225 2°55.353 19.134404 0.003003 0.021541 -0.814958
2004-10-26 06:53:06 51°14.238 2°55.336 19.109663 0.003003 0.021541 -0.848668
2004-10-26 06:53:11 51°14.249 2°55.321 19.119969 0.003003 0.021541 -0.814958
2004-10-26 06:53:14 51°14.255 2°55.312 19.119969 0.003003 0.021541 -0.814958
2004-10-26 06:53:20 51°14.267 2°55.292 19.230221 0.002899 0.021074 -0.848668
2004-10-26 06:53:24 51°14.274 2°55.278 19.14333 0.003003 0.021541 -0.814958
2004-10-26 06:53:31 51°14.287 2°55.253 19.073892 0.002899 0.021074 -0.814958
2004-10-26 06:53:36 51°14.296 2°55.234 19.162998 0.002899 0.021074 -0.814958
2004-10-26 06:53:40 51°14.303 2°55.218 19.10331 0.003003 0.021541 -0.848668
2004-10-26 06:53:46 51°14.313 2°55.194 19.10331 0.003003 0.021541 -0.848668
2004-10-26 06:53:50 51°14.319 2°55.178 19.103532 0.002899 0.021074 -0.848668
2004-10-26 06:53:54 51°14.326 2°55.161 19.081003 0.003003 0.021541 -0.814958
2004-10-26 06:54:00 51°14.337 2°55.137 19.080781 0.003003 0.021541 -0.848668
2004-10-26 06:54:06 51°14.348 2°55.111 19.108775 0.003003 0.021541 -0.848668
2004-10-26 06:54:11 51°14.357 2°55.089 19.065047 0.002899 0.021074 -0.848668
2004-10-26 06:54:16 51°14.366 2°55.067 19.065047 0.002899 0.021074 -0.848668
2004-10-26 06:54:20 51°14.373 2°55.05 19.093002 0.002899 0.021074 -0.814958
2004-10-26 06:54:26 51°14.384 2°55.023 19.015554 0.002899 0.021074 -0.848668
2004-10-26 06:54:34 51°14.398 2°54.986 19.043706 0.002899 0.021074 -0.848668
2004-10-26 06:54:40 51°14.409 2°54.958 18.995801 0.003003 0.021541 -0.848668
2004-10-26 06:54:46 51°14.421 2°54.931 18.995801 0.003003 0.021541 -0.848668
2004-10-26 06:54:51 51°14.434 2°54.91 19.060912 0.003003 0.021541 -0.781249
2004-10-26 06:54:56 51°14.445 2°54.888 19.143463 0.002899 0.021074 -0.814958
2004-10-26 06:54:59 51°14.452 2°54.875 19.124855 0.002899 0.021074 -0.814958
2004-10-26 06:55:06 51°14.469 2°54.844 19.037392 0.003003 0.021541 -0.848668
2004-10-26 06:55:11 51°14.482 2°54.823 19.018312 0.003003 0.021541 -0.848668
2004-10-26 06:55:15 51°14.493 2°54.807 19.018312 0.003003 0.021541 -0.848668
2004-10-26 06:55:21 51°14.509 2°54.785 19.095979 0.002899 0.021074 -0.814958
2004-10-26 06:55:26 51°14.524 2°54.766 19.085581 0.003003 0.021541 -0.848668
2004-10-26 06:55:31 51°14.538 2°54.749 19.129296 0.002899 0.021074 -0.814958
2004-10-26 06:55:36 51°14.553 2°54.731 19.104998 0.003003 0.021541 -0.814958
2004-10-26 06:55:39 51°14.562 2°54.721 19.198769 0.003003 0.021541 -0.848668
2004-10-26 06:55:46 51°14.584 2°54.697 19.198769 0.003003 0.021541 -0.848668
2004-10-26 06:55:51 51°14.599 2°54.68 19.182839 0.002899 0.021074 -0.848668
2004-10-26 06:55:56 51°14.614 2°54.662 19.120991 0.002899 0.021074 -0.814958
2004-10-26 06:55:58 51°14.62 2°54.655 19.172009 0.003003 0.021541 -0.848668
2004-10-26 06:56:06 51°14.643 2°54.626 19.117037 0.003003 0.021541 -0.848668
2004-10-26 06:56:11 51°14.658 2°54.607 19.134937 0.002899 0.021073 -0.814958
2004-10-26 06:56:15 51°14.67 2°54.592 19.134937 0.002899 0.021073 -0.814958
2004-10-26 06:56:20 51°14.685 2°54.574 19.118814 0.003003 0.021541 -0.814958
2004-10-26 06:56:26 51°14.703 2°54.552 19.124766 0.003003 0.021541 -0.814958
2004-10-26 06:56:30 51°14.715 2°54.537 19.148791 0.003003 0.021541 -0.814958
2004-10-26 06:56:36 51°14.734 2°54.516 19.102066 0.003003 0.021541 -0.814958
2004-10-26 06:56:41 51°14.749 2°54.498 19.144173 0.002899 0.021073 -0.814958
2004-10-26 06:56:46 51°14.765 2°54.481 19.144173 0.002899 0.021073 -0.814958
2004-10-26 06:56:50 51°14.777 2°54.467 19.065491 0.003003 0.021541 -0.848668
2004-10-26 06:56:56 51°14.795 2°54.445 19.127253 0.003003 0.021541 -0.814958
2004-10-26 06:57:00 51°14.808 2°54.431 19.164241 0.003003 0.021541 -0.814958
2004-10-26 06:57:06 51°14.826 2°54.41 19.133915 0.002899 0.021073 -0.814958
2004-10-26 06:57:11 51°14.841 2°54.392 19.119836 0.002899 0.021073 -0.882377
2004-10-26 06:57:15 51°14.853 2°54.378 19.119836 0.002899 0.021073 -0.882377
2004-10-26 06:57:19 51°14.865 2°54.364 19.084914 0.002899 0.021073 -0.848668
2004-10-26 06:57:26 51°14.886 2°54.339 19.057356 0.002899 0.021073 -0.814958
2004-10-26 06:57:31 51°14.901 2°54.321 19.029787 0.002899 0.021073 -0.814958
2004-10-26 06:57:34 51°14.91 2°54.31 19.083092 0.002899 0.021073 -0.814958
2004-10-26 06:57:39 51°14.925 2°54.292 19.081003 0.002899 0.021073 -0.814958
2004-10-26 06:57:46 51°14.946 2°54.268 19.081003 0.002899 0.021073 -0.814958
2004-10-26 06:57:50 51°14.958 2°54.254 19.104465 0.002899 0.021073 -0.814958
2004-10-26 06:57:56 51°14.976 2°54.233 19.119836 0.002899 0.021073 -0.848668
2004-10-26 06:57:58 51°14.982 2°54.226 19.087492 0.003003 0.021541 -0.814958
2004-10-26 06:58:06 51°15.006 2°54.197 19.079981 0.002899 0.021073 -0.848668
2004-10-26 06:58:11 51°15.021 2°54.18 19.119303 0.003003 0.02154 -0.848668
2004-10-26 06:58:15 51°15.032 2°54.165 19.119303 0.003003 0.02154 -0.848668
2004-10-26 06:58:18 51°15.041 2°54.155 19.087625 0.002899 0.021073 -0.848668
2004-10-26 06:58:29 51°15.074 2°54.115 19.092602 0.003003 0.02154 -0.848668
2004-10-26 06:58:34 51°15.089 2°54.097 19.092602 0.003003 0.02154 -0.848668
2004-10-26 06:58:38 51°15.101 2°54.083 19.095846 0.002899 0.021073 -0.848668
2004-10-26 06:58:44 51°15.119 2°54.061 19.069492 0.002899 0.021072 -0.814958
2004-10-26 06:58:48 51°15.132 2°54.047 19.090425 0.002899 0.021072 -0.848668
2004-10-26 06:58:54 51°15.15 2°54.026 19.091624 0.003003 0.02154 -0.848668
2004-10-26 06:58:59 51°15.165 2°54.008 19.051532 0.002899 0.021072 -0.814958
2004-10-26 06:59:04 51°15.18 2°53.99 19.051532 0.002899 0.021072 -0.814958
2004-10-26 06:59:08 51°15.193 2°53.976 19.05869 0.002899 0.021072 -0.848668
2004-10-26 06:59:14 51°15.211 2°53.954 19.063802 0.002899 0.021072 -0.814958
2004-10-26 06:59:19 51°15.226 2°53.937 19.064824 0.002899 0.021072 -0.848668
2004-10-26 06:59:23 51°15.238 2°53.922 19.105754 0.002899 0.021072 -0.848668
2004-10-26 06:59:28 51°15.254 2°53.905 19.099711 0.002899 0.021072 -0.848668
2004-10-26 06:59:34 51°15.272 2°53.883 19.099711 0.002899 0.021072 -0.848668
2004-10-26 06:59:39 51°15.287 2°53.865 19.053933 0.003003 0.02154 -0.848668
2004-10-26 06:59:43 51°15.299 2°53.851 19.053444 0.002899 0.021072 -0.814958
2004-10-26 06:59:48 51°15.315 2°53.834 19.080159 0.002899 0.021072 -0.814958
2004-10-26 06:59:54 51°15.333 2°53.813 19.04384 0.002899 0.021072 -0.814958
2004-10-26 06:59:58 51°15.345 2°53.799 19.055 0.003003 0.02154 -0.814958
2004-10-26 07:00:03 51°15.361 2°53.781 19.055 0.003003 0.02154 -0.814958
2004-10-26 07:00:09 51°15.379 2°53.76 19.073492 0.002899 0.021072 -0.814958
2004-10-26 07:00:14 51°15.394 2°53.742 19.101844 0.002899 0.021072 -0.848668
2004-10-26 07:00:19 51°15.41 2°53.724 19.137601 0.002899 0.021072 -0.848668
2004-10-26 07:00:23 51°15.422 2°53.71 19.074203 0.002899 0.021072 -0.848668
2004-10-26 07:00:27 51°15.434 2°53.695 19.068114 0.002899 0.021072 -0.848668
2004-10-26 07:00:34 51°15.455 2°53.67 19.068114 0.002899 0.021072 -0.848668
2004-10-26 07:00:39 51°15.47 2°53.652 19.080959 0.002899 0.021072 -0.848668
2004-10-26 07:00:44 51°15.486 2°53.635 19.088558 0.002899 0.021072 -0.814958
2004-10-26 07:00:48 51°15.498 2°53.621 19.096112 0.002899 0.021072 -0.848668
2004-10-26 07:00:54 51°15.517 2°53.601 19.08838 0.002899 0.021072 -0.848668
2004-10-26 07:00:59 51°15.533 2°53.587 19.067447 0.003003 0.02154 -0.814958
2004-10-26 07:01:03 51°15.546 2°53.576 19.067447 0.003003 0.02154 -0.814958
2004-10-26 07:01:08 51°15.563 2°53.564 18.980314 0.003003 0.02154 -0.814958
2004-10-26 07:01:14 51°15.583 2°53.549 19.047441 0.002899 0.021072 -0.848668
2004-10-26 07:01:19 51°15.6 2°53.538 19.031833 0.002899 0.021072 -0.814958
2004-10-26 07:01:22 51°15.61 2°53.531 19.029831 0.002899 0.021072 -0.814958
2004-10-26 07:01:28 51°15.631 2°53.518 19.025473 0.002899 0.021072 -0.848668
2004-10-26 07:01:34 51°15.651 2°53.505 19.025473 0.002899 0.021072 -0.848668
2004-10-26 07:01:39 51°15.669 2°53.495 19.027163 0.002899 0.021072 -0.814958
2004-10-26 07:01:44 51°15.686 2°53.484 19.062957 0.002899 0.021072 -0.814958
2004-10-26 07:01:48 51°15.699 2°53.476 19.06967 0.002899 0.021072 -0.814958
2004-10-26 07:01:54 51°15.72 2°53.463 19.057534 0.002899 0.021071 -0.848668
2004-10-26 07:01:59 51°15.737 2°53.452 19.034323 0.003003 0.02154 -0.814958
2004-10-26 07:02:03 51°15.751 2°53.443 19.034323 0.003003 0.02154 -0.814958
2004-10-26 07:02:08 51°15.768 2°53.432 19.029654 0.002899 0.021071 -0.814958
2004-10-26 07:02:14 51°15.788 2°53.418 19.047619 0.002899 0.021071 -0.848668
2004-10-26 07:02:19 51°15.805 2°53.407 19.069447 0.002899 0.021071 -0.814958
2004-10-26 07:02:23 51°15.819 2°53.398 19.029698 0.002899 0.021071 -0.814958
2004-10-26 07:02:28 51°15.836 2°53.387 19.04962 0.002899 0.021071 -0.848668
2004-10-26 07:02:34 51°15.856 2°53.373 19.04962 0.002899 0.021071 -0.848668
2004-10-26 07:02:39 51°15.873 2°53.362 19.115038 0.002899 0.021071 -0.848668
2004-10-26 07:02:42 51°15.883 2°53.355 19.063046 0.002899 0.021071 -0.848668
2004-10-26 07:02:49 51°15.907 2°53.34 19.067447 0.003003 0.02154 -0.814958
2004-10-26 07:02:54 51°15.924 2°53.328 19.041172 0.002899 0.021071 -0.814958
2004-10-26 07:02:59 51°15.941 2°53.317 19.026629 0.002899 0.021071 -0.814958
2004-10-26 07:03:02 51°15.951 2°53.31 19.026629 0.002899 0.021071 -0.814958
2004-10-26 07:03:09 51°15.975 2°53.294 19.104954 0.003003 0.02154 -0.814958
2004-10-26 07:03:11 51°15.981 2°53.289 19.031388 0.002899 0.021071 -0.848668
2004-10-26 07:03:19 51°16.008 2°53.272 19.058378 0.002899 0.021071 -0.848668
2004-10-26 07:03:23 51°16.022 2°53.263 19.057222 0.002899 0.021071 -0.814958
2004-10-26 07:03:28 51°16.039 2°53.252 19.052376 0.002899 0.021071 -0.848668
2004-10-26 07:03:34 51°16.06 2°53.239 19.052376 0.002899 0.021071 -0.848668
2004-10-26 07:03:39 51°16.077 2°53.228 19.077359 0.002899 0.021071 -0.848668
2004-10-26 07:03:44 51°16.094 2°53.217 19.060823 0.002899 0.021071 -0.814958
2004-10-26 07:03:47 51°16.104 2°53.211 19.04793 0.002899 0.021071 -0.848668
2004-10-26 07:03:54 51°16.128 2°53.196 19.07367 0.002899 0.021071 -0.848668
2004-10-26 07:03:58 51°16.142 2°53.187 19.085625 0.002899 0.021071 -0.848668
2004-10-26 07:04:08 51°16.176 2°53.166 19.050598 0.002899 0.021071 -0.814958
2004-10-26 07:04:12 51°16.189 2°53.157 19.069447 0.002899 0.021071 -0.848668
2004-10-26 07:04:18 51°16.21 2°53.145 19.033389 0.002899 0.021071 -0.814958
2004-10-26 07:04:23 51°16.227 2°53.134 19.041216 0.002899 0.021071 -0.848668
2004-10-26 07:04:28 51°16.244 2°53.123 19.041216 0.002899 0.021071 -0.848668
2004-10-26 07:04:31 51°16.254 2°53.117 19.055355 0.002899 0.021071 -0.848668
2004-10-26 07:04:38 51°16.278 2°53.102 19.04882 0.002899 0.021071 -0.814958
2004-10-26 07:04:42 51°16.292 2°53.093 19.032678 0.002899 0.021071 -0.848668
2004-10-26 07:04:48 51°16.312 2°53.08 19.07527 0.002899 0.021071 -0.848668
2004-10-26 07:04:52 51°16.326 2°53.071 19.072025 0.002899 0.021071 -0.814958
2004-10-26 07:04:56 51°16.34 2°53.062 19.072025 0.002899 0.021071 -0.814958
2004-10-26 07:05:03 51°16.363 2°53.047 19.054599 0.002899 0.021071 -0.814958
2004-10-26 07:05:06 51°16.374 2°53.04 19.067936 0.002899 0.021071 -0.848668
2004-10-26 07:05:12 51°16.394 2°53.027 19.07287 0.002899 0.02107 -0.814958
2004-10-26 07:05:16 51°16.407 2°53.018 19.054466 0.002899 0.02107 -0.848668
2004-10-26 07:05:22 51°16.428 2°53.004 19.059845 0.002899 0.02107 -0.848668
2004-10-26 07:05:27 51°16.445 2°52.993 19.059845 0.002899 0.02107 -0.848668
2004-10-26 07:05:32 51°16.462 2°52.982 19.062735 0.002899 0.02107 -0.814958
2004-10-26 07:05:36 51°16.475 2°52.974 19.063802 0.002899 0.02107 -0.848668
2004-10-26 07:05:42 51°16.496 2°52.961 19.06598 0.002899 0.02107 -0.848668
2004-10-26 07:05:48 51°16.516 2°52.948 19.047619 0.002899 0.02107 -0.848668
2004-10-26 07:05:52 51°16.53 2°52.939 19.034857 0.002899 0.02107 -0.848668
2004-10-26 07:05:55 51°16.54 2°52.933 19.034857 0.002899 0.02107 -0.848668
2004-10-26 07:06:02 51°16.564 2°52.918 19.032945 0.002899 0.02107 -0.814958
2004-10-26 07:06:08 51°16.584 2°52.905 19.044595 0.002899 0.02107 -0.814958
2004-10-26 07:06:11 51°16.594 2°52.899 19.055355 0.002899 0.02107 -0.848668
2004-10-26 07:06:18 51°16.618 2°52.884 19.066113 0.002899 0.02107 -0.814958
2004-10-26 07:06:23 51°16.635 2°52.873 19.064291 0.002899 0.02107 -0.848668
2004-10-26 07:06:28 51°16.652 2°52.862 19.064291 0.002899 0.02107 -0.848668
2004-10-26 07:06:32 51°16.666 2°52.854 19.051532 0.002899 0.02107 -0.848668
2004-10-26 07:06:38 51°16.686 2°52.841 19.039393 0.002899 0.02107 -0.848668
2004-10-26 07:06:43 51°16.703 2°52.831 18.022296 0.002899 0.02107 -0.814958
2004-10-26 07:06:47 51°16.716 2°52.822 15.40904 0.002899 0.021068 -0.814958
2004-10-26 07:06:53 51°16.737 2°52.81 14.520853 0.59952 3.611759 13.208153
2004-10-26 07:06:58 51°16.754 2°52.8 14.520853 0.59952 3.611759 13.208153
2004-10-26 07:07:08 51°16.787 2°52.779 14.242182 3.64288 26.563445 3.162751
2004-10-26 07:07:12 51°16.801 2°52.771 14.115945 4.24826 32.462877 3.297589
2004-10-26 07:07:18 51°16.821 2°52.759 14.031786 4.23763 33.540807 3.904358
2004-10-26 07:07:23 51°16.837 2°52.748 14.015314 4.191983 33.757985 4.409999
2004-10-26 07:07:28 51°16.854 2°52.737 14.015314 4.191983 33.757985 4.409999
2004-10-26 07:07:31 51°16.863 2°52.731 13.983983 4.154874 33.773101 4.645965
2004-10-26 07:07:38 51°16.887 2°52.716 13.992916 4.119874 33.689757 4.88193
2004-10-26 07:07:42 51°16.9 2°52.707 13.950392 4.122196 33.851441 5.016768
2004-10-26 07:07:48 51°16.92 2°52.694 13.960715 4.13622 34.080656 4.983059
2004-10-26 07:07:52 51°16.933 2°52.685 13.918314 4.132847 34.099411 4.645965
2004-10-26 07:07:58 51°16.953 2°52.672 13.918314 4.132847 34.099411 4.645965
2004-10-26 07:08:03 51°16.97 2°52.661 13.915302 4.118298 34.007707 4.88193
2004-10-26 07:08:08 51°16.986 2°52.65 13.956414 4.120196 34.059603 5.084187
2004-10-26 07:08:12 51°17 2°52.641 13.943127 4.117982 34.064819 4.645965
2004-10-26 07:08:18 51°17.02 2°52.628 13.888949 4.104593 33.96135 4.780802
2004-10-26 07:08:23 51°17.037 2°52.616 13.91382 4.110708 34.036103 4.645965
2004-10-26 07:08:27 51°17.05 2°52.608 13.91382 4.110708 34.036103 4.645965
2004-10-26 07:08:31 51°17.063 2°52.599 13.919414 4.093945 33.885176 4.679674
2004-10-26 07:08:38 51°17.087 2°52.583 13.905212 4.103644 33.986317 4.713383
2004-10-26 07:08:43 51°17.103 2°52.573 13.90985 4.104593 34.00523 4.511127
2004-10-26 07:08:48 51°17.12 2°52.562 13.920179 4.102274 33.996612 4.780802
2004-10-26 07:08:52 51°17.133 2°52.554 13.906598 4.104804 34.024092 4.443708
2004-10-26 07:08:55 51°17.143 2°52.547 13.906598 4.104804 34.024092 4.443708
2004-10-26 07:09:03 51°17.17 2°52.53 13.885074 4.103856 34.020722 4.679674
2004-10-26 07:09:08 51°17.187 2°52.519 13.882108 4.104699 34.037335 4.713383
2004-10-26 07:09:12 51°17.2 2°52.51 13.870338 4.094683 33.946625 4.443708
2004-10-26 07:09:16 51°17.214 2°52.501 13.858709 4.099112 33.993034 4.578546
2004-10-26 07:09:22 51°17.234 2°52.488 13.861533 4.078026 33.805248 4.409999
2004-10-26 07:09:28 51°17.254 2°52.475 13.861533 4.078026 33.805248 4.409999
2004-10-26 07:09:32 51°17.267 2°52.466 13.874261 4.09753 33.996662 4.241452
2004-10-26 07:09:35 51°17.277 2°52.46 13.856986 4.0814 33.859394 4.544836
2004-10-26 07:09:42 51°17.301 2°52.445 13.873879 4.099745 34.038874 4.207742
2004-10-26 07:09:48 51°17.321 2°52.431 13.855694 4.100377 34.048133 4.443708
2004-10-26 07:09:51 51°17.331 2°52.425 13.863351 4.100694 34.047672 4.376289
2004-10-26 07:09:58 51°17.354 2°52.409 13.863351 4.100694 34.047672 4.376289
2004-10-26 07:10:03 51°17.371 2°52.397 13.86048 4.093314 33.982637 4.477418
2004-10-26 07:10:08 51°17.388 2°52.386 13.852966 4.092576 33.97715 4.275161
2004-10-26 07:10:12 51°17.401 2°52.377 13.831377 4.091838 33.975727 4.072905
2004-10-26 07:10:16 51°17.414 2°52.367 13.847462 4.092154 33.982725 4.140324
2004-10-26 07:10:23 51°17.438 2°52.351 13.836117 4.090994 33.982814 4.140324
2004-10-26 07:10:26 51°17.448 2°52.345 13.836117 4.090994 33.982814 4.140324
2004-10-26 07:10:32 51°17.468 2°52.332 13.835303 4.100799 34.076501 4.477418
2004-10-26 07:10:38 51°17.488 2°52.32 13.838893 4.088991 33.975079 4.106614
2004-10-26 07:10:43 51°17.505 2°52.314 13.856986 4.073599 33.83231 4.207742
2004-10-26 07:10:48 51°17.523 2°52.31 13.861246 4.098586 34.068191 4.241452
2004-10-26 07:10:52 51°17.537 2°52.308 13.862299 4.098691 34.07257 4.477418
2004-10-26 07:10:56 51°17.551 2°52.306 13.862299 4.098691 34.07257 4.477418
2004-10-26 07:11:02 51°17.572 2°52.305 13.846696 4.093736 34.029968 4.207742
2004-10-26 07:11:08 51°17.593 2°52.304 13.842292 4.077605 33.872164 4.376289
2004-10-26 07:11:12 51°17.607 2°52.304 13.828074 4.095528 34.032338 4.376289
2004-10-26 07:11:18 51°17.628 2°52.304 13.834872 4.098269 34.055738 4.275161
2004-10-26 07:11:23 51°17.646 2°52.303 13.828505 4.0911 33.99193 4.140324
2004-10-26 07:11:28 51°17.663 2°52.303 13.828505 4.0911 33.99193 4.140324
2004-10-26 07:11:32 51°17.677 2°52.303 13.830563 4.093209 34.018283 4.241452
2004-10-26 07:11:38 51°17.699 2°52.302 13.81457 4.087621 33.973889 4.140324
2004-10-26 07:11:42 51°17.713 2°52.301 13.810021 4.04893 33.61844 4.106614
2004-10-26 07:11:47 51°17.73 2°52.3 13.80935 4.082561 33.935736 3.971777
2004-10-26 07:11:52 51°17.748 2°52.299 13.802933 4.062846 33.756199 4.174033
2004-10-26 07:11:56 51°17.762 2°52.299 13.802933 4.062846 33.756199 4.174033
2004-10-26 07:12:02 51°17.783 2°52.298 13.80844 4.0872 33.990334 4.140324
2004-10-26 07:12:08 51°17.805 2°52.297 13.806573 4.091311 34.03192 4.106614
2004-10-26 07:12:12 51°17.819 2°52.298 13.792347 4.051144 33.665842 4.275161
2004-10-26 07:12:16 51°17.833 2°52.297 13.787652 4.090152 34.029307 3.938067
2004-10-26 07:12:23 51°17.857 2°52.297 13.791532 4.093631 34.063676 4.005486
2004-10-26 07:12:28 51°17.875 2°52.299 13.791532 4.093631 34.063676 4.005486
2004-10-26 07:12:32 51°17.889 2°52.302 13.801735 4.082983 33.964069 4.241452
2004-10-26 07:12:38 51°17.91 2°52.306 13.780226 4.080452 33.948032 4.072905
2004-10-26 07:12:43 51°17.927 2°52.31 13.800634 4.08836 34.024898 3.870648
2004-10-26 07:12:48 51°17.945 2°52.314 13.791005 4.091734 34.062383 4.039195
2004-10-26 07:12:53 51°17.962 2°52.32 13.77553 4.093737 34.076917 4.005486
2004-10-26 07:12:58 51°17.979 2°52.325 13.77553 4.093737 34.076917 4.005486
2004-10-26 07:13:02 51°17.993 2°52.329 13.767193 4.089625 34.042782 3.938067
2004-10-26 07:13:08 51°18.014 2°52.334 13.761586 4.089836 34.044742 4.376289
2004-10-26 07:13:12 51°18.028 2°52.338 13.765947 4.092366 34.067582 3.836939
2004-10-26 07:13:16 51°18.042 2°52.342 13.765036 4.087727 34.033991 3.904358
2004-10-26 07:13:23 51°18.066 2°52.35 13.764221 4.086251 34.027075 3.735811
2004-10-26 07:13:26 51°18.077 2°52.352 13.764221 4.086251 34.027075 3.735811
2004-10-26 07:13:30 51°18.091 2°52.356 13.749795 4.089309 34.063005 3.76952
2004-10-26 07:13:40 51°18.126 2°52.365 13.756314 4.090996 34.079378 3.80323
2004-10-26 07:13:45 51°18.144 2°52.369 13.749459 4.092683 34.097801 3.80323
2004-10-26 07:13:50 51°18.162 2°52.374 13.757943 4.090785 34.084239 3.76952
2004-10-26 07:13:55 51°18.179 2°52.378 13.751089 4.095635 34.132785 3.735811
2004-10-26 07:14:00 51°18.197 2°52.383 13.754972 4.088887 34.07204 3.870648
2004-10-26 07:14:04 51°18.211 2°52.386 13.75617 4.091102 34.095374 3.870648
2004-10-26 07:14:10 51°18.232 2°52.392 13.75617 4.091102 34.095374 3.870648
2004-10-26 07:14:15 51°18.249 2°52.396 13.738722 4.080769 33.997873 3.80323
2004-10-26 07:14:20 51°18.267 2°52.4 13.734694 4.08467 34.035527 3.567264
2004-10-26 07:14:24 51°18.281 2°52.404 13.738626 4.09437 34.128527 3.971777
2004-10-26 07:14:30 51°18.302 2°52.409 13.734167 4.092894 34.112055 3.76952
2004-10-26 07:14:40 51°18.337 2°52.418 13.739009 4.088677 34.078949 3.76952
2004-10-26 07:14:45 51°18.354 2°52.422 13.740208 4.082667 34.029156 3.499845
2004-10-26 07:14:50 51°18.372 2°52.427 13.737523 4.088361 34.084197 3.76952
2004-10-26 07:14:55 51°18.39 2°52.431 13.730763 4.090153 34.100884 3.702101
2004-10-26 07:15:00 51°18.407 2°52.435 13.735078 4.090575 34.105494 3.634683
2004-10-26 07:15:04 51°18.421 2°52.439 13.731146 4.095846 34.154581 3.466136
2004-10-26 07:15:10 51°18.442 2°52.443 13.731146 4.095846 34.154581 3.466136
2004-10-26 07:15:15 51°18.46 2°52.448 13.729564 4.089731 34.099691 3.634683
2004-10-26 07:15:20 51°18.477 2°52.452 13.728605 4.094686 34.147202 3.466136
2004-10-26 07:15:25 51°18.495 2°52.456 13.719974 4.094265 34.144643 3.499845
2004-10-26 07:15:30 51°18.513 2°52.46 13.723906 4.090364 34.111049 3.263879
2004-10-26 07:15:35 51°18.53 2°52.464 13.716186 4.096057 34.16613 3.263879
2004-10-26 07:15:39 51°18.545 2°52.468 13.716186 4.096057 34.16613 3.263879
2004-10-26 07:15:43 51°18.559 2°52.472 13.723331 4.088466 34.095426 3.263879
2004-10-26 07:15:50 51°18.583 2°52.481 13.727167 4.086252 34.07959 3.634683
2004-10-26 07:15:54 51°18.597 2°52.485 13.71983 4.092894 34.142826 3.297589
2004-10-26 07:15:59 51°18.614 2°52.494 13.721892 4.086358 34.085355 3.19646
2004-10-26 07:16:04 51°18.631 2°52.501 13.714939 4.088466 34.104312 3.297589
2004-10-26 07:16:10 51°18.651 2°52.512 13.714939 4.088466 34.104312 3.297589
2004-10-26 07:16:15 51°18.668 2°52.52 13.716905 4.086041 34.081042 3.095332
2004-10-26 07:16:19 51°18.681 2°52.527 13.704291 4.085198 34.072503 3.129042
2004-10-26 07:16:24 51°18.698 2°52.535 13.710383 4.083089 34.056962 2.859366
2004-10-26 07:16:30 51°18.718 2°52.545 13.705395 4.088256 34.107819 2.960494
2004-10-26 07:16:34 51°18.732 2°52.552 13.701893 4.090259 34.129904 2.893076
2004-10-26 07:16:38 51°18.745 2°52.559 13.701893 4.090259 34.129904 2.893076
2004-10-26 07:16:43 51°18.762 2°52.566 13.699303 4.085304 34.084418 2.893076
2004-10-26 07:16:50 51°18.785 2°52.578 13.695561 4.096057 34.188744 2.724529
2004-10-26 07:16:55 51°18.802 2°52.586 13.700646 4.081086 34.048546 3.19646
2004-10-26 07:16:59 51°18.815 2°52.593 13.696377 4.091102 34.144612 3.129042
2004-10-26 07:17:04 51°18.832 2°52.601 13.700694 4.089415 34.131628 2.926785
2004-10-26 07:17:10 51°18.852 2°52.612 13.700694 4.089415 34.131628 2.926785
2004-10-26 07:17:15 51°18.868 2°52.622 13.696952 4.093211 34.169064 2.825657
2004-10-26 07:17:20 51°18.885 2°52.632 13.699495 4.094792 34.183808 2.994204
2004-10-26 07:17:24 51°18.897 2°52.641 13.694314 4.093422 34.173087 2.724529
2004-10-26 07:17:30 51°18.917 2°52.654 13.695993 4.088888 34.131508 2.690819
2004-10-26 07:17:35 51°18.933 2°52.665 13.698823 4.098061 34.217028 2.488563
2004-10-26 07:17:40 51°18.949 2°52.676 13.698823 4.098061 34.217028 2.488563
2004-10-26 07:17:44 51°18.962 2°52.684 13.704291 4.087096 34.113432 2.589691
2004-10-26 07:17:49 51°18.978 2°52.695 13.706114 4.070755 33.963894 2.690819
2004-10-26 07:17:55 51°18.998 2°52.708 13.706642 4.094476 34.184974 2.555982
2004-10-26 07:18:00 51°19.014 2°52.719 13.714219 4.096268 34.202373 2.454853
2004-10-26 07:18:04 51°19.027 2°52.728 13.710095 4.099326 34.226766 2.555982
2004-10-26 07:18:09 51°19.043 2°52.739 13.710095 4.099326 34.226766 2.555982
2004-10-26 07:18:15 51°19.063 2°52.752 13.711102 4.079294 34.038677 2.555982
2004-10-26 07:18:19 51°19.076 2°52.761 13.710527 4.098588 34.217138 2.724529
2004-10-26 07:18:24 51°19.092 2°52.771 13.716186 4.094265 34.175465 2.65711
2004-10-26 07:18:30 51°19.112 2°52.784 13.721365 4.092157 34.155124 2.589691
2004-10-26 07:18:35 51°19.128 2°52.794 13.725824 4.096479 34.196105 2.555982
2004-10-26 07:18:40 51°19.145 2°52.806 13.725824 4.096479 34.196105 2.555982
2004-10-26 07:18:43 51°19.154 2°52.812 13.727982 4.09416 34.172425 2.65711
2004-10-26 07:18:50 51°19.177 2°52.828 13.731866 4.078556 34.027705 2.555982
2004-10-26 07:18:54 51°19.19 2°52.836 13.729181 4.070438 33.947326 2.6234
2004-10-26 07:18:59 51°19.206 2°52.847 13.727934 4.094687 34.171855 2.555982
2004-10-26 07:19:04 51°19.223 2°52.857 13.734934 4.098377 34.201449 2.522272
2004-10-26 07:19:10 51°19.242 2°52.87 13.734934 4.098377 34.201449 2.522272
2004-10-26 07:19:15 51°19.258 2°52.882 13.733064 4.075288 33.984991 2.6234
2004-10-26 07:19:20 51°19.274 2°52.893 13.734838 4.099536 34.208828 2.893076
2004-10-26 07:19:23 51°19.284 2°52.9 13.738482 4.075393 33.983928 2.724529
2004-10-26 07:19:30 51°19.307 2°52.915 13.741646 4.087728 34.096754 2.522272
2004-10-26 07:19:35 51°19.323 2°52.927 13.74481 4.091524 34.132111 2.6234
2004-10-26 07:19:40 51°19.34 2°52.937 13.74481 4.091524 34.132111 2.6234
2004-10-26 07:19:42 51°19.347 2°52.941 13.743276 4.096584 34.178576 2.65711
2004-10-26 07:19:50 51°19.373 2°52.959 13.747063 4.095003 34.161786 2.421144
2004-10-26 07:19:54 51°19.387 2°52.968 13.747302 4.096163 34.170536 2.791947
2004-10-26 07:20:00 51°19.406 2°52.981 13.745433 4.095952 34.165832 2.791947
2004-10-26 07:20:04 51°19.419 2°52.99 13.750131 4.095424 34.159552 2.522272
2004-10-26 07:20:10 51°19.44 2°53.003 13.750131 4.095424 34.159552 2.522272
2004-10-26 07:20:15 51°19.456 2°53.014 13.749651 4.088782 34.097005 2.522272
2004-10-26 07:20:20 51°19.473 2°53.025 13.751712 4.095003 34.152886 2.488563
2004-10-26 07:20:24 51°19.486 2°53.034 13.746679 4.086147 34.071778 2.758238
2004-10-26 07:20:30 51°19.506 2°53.047 13.747926 4.088993 34.096235 2.724529
2004-10-26 07:20:35 51°19.522 2°53.059 13.744282 4.087834 34.085436 2.555982
2004-10-26 07:20:40 51°19.539 2°53.07 13.744282 4.087834 34.085436 2.555982
2004-10-26 07:20:44 51°19.552 2°53.079 13.742509 4.094476 34.14387 2.960494
2004-10-26 07:20:49 51°19.569 2°53.09 13.742892 4.091102 34.111086 2.724529
2004-10-26 07:20:55 51°19.588 2°53.104 13.740208 4.099958 34.196989 2.994204
2004-10-26 07:20:58 51°19.598 2°53.11 13.737283 4.094897 34.150535 2.926785
2004-10-26 07:21:03 51°19.615 2°53.122 13.735461 4.094265 34.14738 2.690819
2004-10-26 07:21:10 51°19.638 2°53.137 13.735461 4.094265 34.14738 2.690819
2004-10-26 07:21:14 51°19.651 2°53.146 13.739824 4.099115 34.193928 2.65711
2004-10-26 07:21:19 51°19.668 2°53.157 13.738146 4.092051 34.130863 2.893076
2004-10-26 07:21:24 51°19.684 2°53.168 13.734934 4.077502 33.995383 2.791947
2004-10-26 07:21:30 51°19.704 2°53.182 13.732968 4.089942 34.113958 2.893076
2004-10-26 07:21:35 51°19.72 2°53.192 13.740304 4.099642 34.203639 2.724529
2004-10-26 07:21:40 51°19.737 2°53.202 13.740304 4.099642 34.203639 2.724529
2004-10-26 07:21:45 51°19.753 2°53.213 13.732825 4.099958 34.207272 2.690819
2004-10-26 07:21:50 51°19.769 2°53.224 13.728413 4.100064 34.210997 2.555982
2004-10-26 07:21:55 51°19.785 2°53.237 13.731482 4.078767 34.012614 2.488563
2004-10-26 07:22:00 51°19.801 2°53.248 13.727646 4.092894 34.144195 2.589691
2004-10-26 07:22:04 51°19.814 2°53.258 13.726208 4.098798 34.199207 2.724529
2004-10-26 07:22:10 51°19.833 2°53.272 13.726208 4.098798 34.199207 2.724529
2004-10-26 07:22:14 51°19.846 2°53.282 13.725872 4.096795 34.183968 2.555982
2004-10-26 07:22:20 51°19.865 2°53.298 13.737907 4.09785 34.195164 2.522272
2004-10-26 07:22:24 51°19.878 2°53.307 13.731818 4.100802 34.222678 2.454853
2004-10-26 07:22:30 51°19.896 2°53.323 13.734646 4.088361 34.108117 2.454853
2004-10-26 07:22:40 51°19.929 2°53.346 13.727502 4.100485 34.223161 2.421144
2004-10-26 07:22:45 51°19.945 2°53.358 13.730475 4.094054 34.160479 2.320016
2004-10-26 07:22:50 51°19.961 2°53.37 13.728461 4.093949 34.158127 2.522272
2004-10-26 07:22:55 51°19.977 2°53.381 13.732968 4.098904 34.201561 2.387435
2004-10-26 07:23:00 51°19.993 2°53.394 13.731003 4.098271 34.199095 2.791947
2004-10-26 07:23:04 51°20.006 2°53.403 13.732297 4.094581 34.165391 2.589691
2004-10-26 07:23:10 51°20.025 2°53.418 13.732297 4.094581 34.165391 2.589691
2004-10-26 07:23:14 51°20.038 2°53.427 13.736852 4.098693 34.205083 2.387435
2004-10-26 07:23:20 51°20.057 2°53.442 13.753246 4.094476 34.165779 2.522272
2004-10-26 07:23:24 51°20.07 2°53.451 13.755643 4.091207 34.13327 2.320016
2004-10-26 07:23:30 51°20.089 2°53.466 13.743611 4.089626 34.117168 2.522272
2004-10-26 07:23:39 51°20.118 2°53.487 13.755211 4.093105 34.148213 2.117759
2004-10-26 07:23:43 51°20.13 2°53.497 13.74759 4.094687 34.156785 2.555982
2004-10-26 07:23:49 51°20.15 2°53.51 13.73968 4.093632 34.142857 2.421144
2004-10-26 07:23:55 51°20.169 2°53.524 13.742892 4.053886 33.771588 2.218888
2004-10-26 07:24:00 51°20.185 2°53.536 13.74759 4.095952 34.160355 2.320016
2004-10-26 07:24:04 51°20.197 2°53.545 13.746488 4.098166 34.185088 2.589691
2004-10-26 07:24:10 51°20.217 2°53.559 13.746488 4.098166 34.185088 2.589691
2004-10-26 07:24:15 51°20.233 2°53.571 13.751521 4.098798 34.193723 2.320016
2004-10-26 07:24:19 51°20.245 2°53.58 13.743755 4.071281 33.936125 2.387435
2004-10-26 07:24:23 51°20.258 2°53.59 13.748501 4.090048 34.112205 2.117759
2004-10-26 07:24:30 51°20.28 2°53.606 13.751712 4.079188 34.009723 2.421144
2004-10-26 07:24:34 51°20.293 2°53.616 13.749651 4.067697 33.901409 2.252597
2004-10-26 07:24:40 51°20.312 2°53.63 13.749651 4.067697 33.901409 2.252597
2004-10-26 07:24:44 51°20.325 2°53.64 13.744139 4.092683 34.136756 2.555982
2004-10-26 07:24:50 51°20.344 2°53.654 13.755403 4.098798 34.193038 2.421144
2004-10-26 07:24:54 51°20.356 2°53.664 13.751185 4.099642 34.198154 2.320016
2004-10-26 07:25:00 51°20.375 2°53.678 13.754876 4.092789 34.133633 2.151469
2004-10-26 07:25:03 51°20.385 2°53.685 13.755499 4.10175 34.216429 2.320016
2004-10-26 07:25:10 51°20.407 2°53.701 13.755499 4.10175 34.216429 2.320016
2004-10-26 07:25:19 51°20.436 2°53.723 13.752815 4.092894 34.13393 2.353725
2004-10-26 07:25:23 51°20.448 2°53.733 13.747974 4.089204 34.098199 2.690819
2004-10-26 07:25:30 51°20.47 2°53.75 13.748645 4.093 34.134912 2.421144
2004-10-26 07:25:35 51°20.486 2°53.762 13.751521 4.089626 34.102126 2.690819
2004-10-26 07:25:38 51°20.496 2°53.769 13.751521 4.089626 34.102126 2.690819
2004-10-26 07:25:42 51°20.509 2°53.778 13.750178 4.095635 34.158778 2.353725
2004-10-26 07:25:51 51°20.537 2°53.799 13.746919 4.095846 34.161426 2.286306
2004-10-26 07:25:56 51°20.553 2°53.811 13.753246 4.090469 34.111347 2.286306
2004-10-26 07:26:08 51°20.592 2°53.84 13.757368 4.095319 34.157201 2.320016
2004-10-26 07:26:13 51°20.608 2°53.852 13.756553 4.080559 34.021119 2.387435
2004-10-26 07:26:18 51°20.624 2°53.864 13.76034 4.085092 34.063327 2.421144
2004-10-26 07:26:23 51°20.64 2°53.876 13.760579 4.081192 34.022235 2.421144
2004-10-26 07:26:28 51°20.656 2°53.888 13.760579 4.081192 34.022235 2.421144
2004-10-26 07:26:31 51°20.666 2°53.894 13.756793 4.093105 34.133158 2.724529
2004-10-26 07:26:38 51°20.688 2°53.91 13.772176 4.094159 34.142977 2.353725
2004-10-26 07:26:42 51°20.701 2°53.92 13.757656 4.071176 33.928344 2.522272
2004-10-26 07:26:48 51°20.721 2°53.934 13.758327 4.098376 34.179517 2.151469
2004-10-26 07:26:52 51°20.733 2°53.943 13.76034 4.087939 34.080954 2.421144
2004-10-26 07:26:55 51°20.743 2°53.95 13.76034 4.087939 34.080954 2.421144
2004-10-26 07:27:02 51°20.765 2°53.967 13.763263 4.085619 34.058679 2.117759
2004-10-26 07:27:08 51°20.784 2°53.981 13.762017 4.08952 34.093628 2.218888
2004-10-26 07:27:12 51°20.797 2°53.99 13.760771 4.095108 34.147024 2.387435
2004-10-26 07:27:18 51°20.817 2°54.004 13.752767 4.095319 34.150357 2.320016
2004-10-26 07:27:23 51°20.832 2°54.016 13.758998 4.101645 34.207905 2.454853
2004-10-26 07:27:27 51°20.845 2°54.025 13.758998 4.101645 34.207905 2.454853
2004-10-26 07:27:32 51°20.861 2°54.037 13.756505 4.092472 34.122481 2.353725
2004-10-26 07:27:38 51°20.88 2°54.051 13.756841 4.089309 34.091665 2.286306
2004-10-26 07:27:43 51°20.896 2°54.064 13.751137 4.100485 34.199158 2.218888
2004-10-26 07:27:48 51°20.912 2°54.076 13.746919 4.090891 34.110489 2.387435
2004-10-26 07:27:51 51°20.922 2°54.083 13.756937 4.097744 34.174995 2.218888
2004-10-26 07:27:58 51°20.945 2°54.1 13.756937 4.097744 34.174995 2.218888
2004-10-26 07:28:03 51°20.961 2°54.111 13.748309 4.09184 34.126163 2.320016
2004-10-26 07:28:07 51°20.974 2°54.121 13.752767 4.097217 34.171454 2.488563
2004-10-26 07:28:13 51°20.994 2°54.134 13.753486 4.097322 34.173806 2.454853
2004-10-26 07:28:18 51°21.01 2°54.147 13.753821 4.096373 34.164967 2.218888
2004-10-26 07:28:23 51°21.025 2°54.161 13.757656 4.092367 34.129021 2.488563
2004-10-26 07:28:28 51°21.041 2°54.174 13.757656 4.092367 34.129021 2.488563
2004-10-26 07:28:29 51°21.044 2°54.177 13.748261 4.103121 34.23263 2.117759
2004-10-26 07:28:38 51°21.071 2°54.202 13.747398 4.093527 34.141191 2.454853
2004-10-26 07:28:42 51°21.084 2°54.213 13.747782 4.101539 34.21515 2.286306
2004-10-26 07:28:48 51°21.102 2°54.23 13.745241 4.102699 34.223212 2.320016
2004-10-26 07:28:51 51°21.112 2°54.238 13.743947 4.081192 34.023598 2.421144
2004-10-26 07:28:58 51°21.134 2°54.257 13.743947 4.081192 34.023598 2.421144
2004-10-26 07:29:08 51°21.165 2°54.285 13.749076 4.065167 33.879904 2.218888
2004-10-26 07:29:12 51°21.178 2°54.296 13.750658 4.098166 34.185773 2.353725
2004-10-26 07:29:18 51°21.197 2°54.312 13.754636 4.105757 34.262 2.6234
2004-10-26 07:29:23 51°21.212 2°54.327 13.758231 4.091102 34.123393 2.387435
2004-10-26 07:29:27 51°21.224 2°54.338 13.758231 4.091102 34.123393 2.387435
2004-10-26 07:29:32 51°21.238 2°54.355 13.753438 4.08815 34.094531 2.522272
2004-10-26 07:29:38 51°21.256 2°54.373 13.757751 4.090891 34.120061 2.151469
2004-10-26 07:29:43 51°21.271 2°54.389 13.752144 4.096795 34.171635 2.252597
2004-10-26 07:29:48 51°21.286 2°54.405 13.751041 4.088888 34.095253 2.320016
2004-10-26 07:29:51 51°21.295 2°54.415 13.746488 4.095424 34.15476 2.185178
2004-10-26 07:29:58 51°21.316 2°54.437 13.746488 4.095424 34.15476 2.185178
2004-10-26 07:30:08 51°21.346 2°54.466 13.746008 4.092051 34.126075 2.08405
2004-10-26 07:30:12 51°21.357 2°54.48 13.750897 4.099853 34.20149 2.252597
2004-10-26 07:30:18 51°21.375 2°54.498 13.747638 4.105019 34.251001 2.185178
2004-10-26 07:30:23 51°21.39 2°54.514 13.752959 4.090575 34.118483 2.353725
2004-10-26 07:30:27 51°21.402 2°54.526 13.752959 4.090575 34.118483 2.353725
2004-10-26 07:30:31 51°21.414 2°54.539 13.744139 4.100485 34.210812 2.353725
2004-10-26 07:30:38 51°21.435 2°54.56 13.742653 4.101539 34.219951 2.286306
2004-10-26 07:30:43 51°21.449 2°54.576 13.74318 4.090786 34.117711 2.387435
2004-10-26 07:30:47 51°21.461 2°54.588 13.741646 4.099536 34.199228 2.185178
2004-10-26 07:30:53 51°21.479 2°54.607 13.739632 4.08446 34.063581 2.421144
2004-10-26 07:30:58 51°21.494 2°54.623 13.739632 4.08446 34.063581 2.421144
2004-10-26 07:31:02 51°21.506 2°54.635 13.73805 4.107655 34.281064 2.320016
2004-10-26 07:31:08 51°21.524 2°54.655 13.741646 4.098798 34.198522 2.454853
2004-10-26 07:31:12 51°21.536 2°54.667 13.742748 4.098904 34.198819 2.218888
2004-10-26 07:31:18 51°21.554 2°54.686 13.746392 4.099326 34.205491 2.488563
2004-10-26 07:31:23 51°21.569 2°54.701 13.739153 4.090997 34.129252 2.218888
2004-10-26 07:31:27 51°21.581 2°54.714 13.739153 4.090997 34.129252 2.218888
2004-10-26 07:31:31 51°21.593 2°54.727 13.743611 4.091735 34.134759 2.353725
2004-10-26 07:31:38 51°21.614 2°54.748 13.748309 4.102172 34.230649 2.488563
2004-10-26 07:31:43 51°21.629 2°54.763 13.743851 4.097322 34.183397 2.387435
2004-10-26 07:31:47 51°21.64 2°54.777 13.742988 4.103543 34.241364 2.353725
2004-10-26 07:31:52 51°21.656 2°54.79 13.739105 4.091629 34.132408 2.825657
2004-10-26 07:31:58 51°21.673 2°54.81 13.739105 4.091629 34.132408 2.825657
2004-10-26 07:32:03 51°21.688 2°54.824 13.746008 4.067592 33.907223 2.218888
2004-10-26 07:32:08 51°21.703 2°54.841 13.748261 4.095214 34.16512 2.454853
2004-10-26 07:32:12 51°21.715 2°54.852 13.746919 4.087517 34.095474 2.286306
2004-10-26 07:32:18 51°21.733 2°54.871 13.752 4.105335 34.260817 2.387435
2004-10-26 07:32:23 51°21.748 2°54.886 13.749555 4.096373 34.177297 2.185178
2004-10-26 07:32:28 51°21.762 2°54.901 13.749555 4.096373 34.177297 2.185178
2004-10-26 07:32:31 51°21.771 2°54.91 13.751952 4.105968 34.264652 2.08405
2004-10-26 07:32:38 51°21.792 2°54.932 13.752048 4.10154 34.221323 2.690819
2004-10-26 07:32:42 51°21.803 2°54.945 13.758279 4.090153 34.113871 2.320016
2004-10-26 07:32:48 51°21.821 2°54.963 13.751185 4.109447 34.293647 2.387435
2004-10-26 07:32:52 51°21.834 2°54.975 13.749316 4.103648 34.237542 2.589691
2004-10-26 07:32:58 51°21.852 2°54.991 13.749316 4.103648 34.237542 2.589691
2004-10-26 07:33:03 51°21.867 2°55.004 13.748453 4.110817 34.303673 2.320016
2004-10-26 07:33:08 51°21.883 2°55.018 13.747638 4.10892 34.283235 2.421144
2004-10-26 07:33:13 51°21.899 2°55.032 13.752815 4.113875 34.331487 2.454853
2004-10-26 07:33:18 51°21.915 2°55.044 13.745337 4.107444 34.272227 2.555982
2004-10-26 07:33:22 51°21.927 2°55.055 13.755115 4.10175 34.22123 2.252597
2004-10-26 07:33:27 51°21.943 2°55.068 13.755115 4.10175 34.22123 2.252597
2004-10-26 07:33:31 51°21.956 2°55.078 13.755451 4.110923 34.307407 2.421144
2004-10-26 07:33:38 51°21.978 2°55.097 13.756122 4.102594 34.22909 2.353725
2004-10-26 07:33:43 51°21.994 2°55.109 13.749891 4.096901 34.176042 2.353725
2004-10-26 07:33:48 51°22.01 2°55.122 13.770595 4.098377 34.189108 2.320016
2004-10-26 07:33:49 51°22.013 2°55.125 13.759525 4.107654 34.272818 2.522272
2004-10-26 07:33:58 51°22.042 2°55.147 13.759525 4.107654 34.272818 2.522272
2004-10-26 07:34:02 51°22.055 2°55.157 13.770451 4.072652 33.946159 2.320016
2004-10-26 07:34:08 51°22.074 2°55.172 13.755738 4.110079 34.29267 2.488563
2004-10-26 07:34:11 51°22.084 2°55.181 13.767336 4.111766 34.304954 2.454853
2004-10-26 07:34:18 51°22.107 2°55.198 13.755595 4.096162 34.158212 2.589691
2004-10-26 07:34:28 51°22.139 2°55.224 13.756793 4.102277 34.211741 2.218888
2004-10-26 07:34:33 51°22.155 2°55.237 13.75895 4.101012 34.204069 2.791947
2004-10-26 07:34:38 51°22.172 2°55.25 13.755595 4.102699 34.218412 2.555982
2004-10-26 07:34:43 51°22.188 2°55.262 13.755259 4.106705 34.257796 2.926785
2004-10-26 07:34:47 51°22.201 2°55.271 13.750083 4.101329 34.211128 2.421144
2004-10-26 07:34:51 51°22.214 2°55.281 13.750035 4.106916 34.263193 2.387435
2004-10-26 07:34:58 51°22.236 2°55.299 13.750035 4.106916 34.263193 2.387435
2004-10-26 07:35:02 51°22.249 2°55.309 13.764126 4.092472 34.130003 2.488563
2004-10-26 07:35:07 51°22.265 2°55.322 13.741454 4.109236 34.284809 2.454853
2004-10-26 07:35:12 51°22.281 2°55.335 13.738961 4.090575 34.113013 2.488563
2004-10-26 07:35:18 51°22.3 2°55.351 13.740016 4.090786 34.119763 2.488563
2004-10-26 07:35:23 51°22.317 2°55.363 13.736852 4.109341 34.289228 2.724529
2004-10-26 07:35:27 51°22.33 2°55.374 13.736852 4.109341 34.289228 2.724529
2004-10-26 07:35:32 51°22.346 2°55.386 13.734982 4.101856 34.222212 2.589691
2004-10-26 07:35:38 51°22.365 2°55.401 13.739776 4.102594 34.233893 2.488563
2004-10-26 07:35:47 51°22.394 2°55.424 13.742988 4.101329 34.226219 2.488563
2004-10-26 07:35:51 51°22.407 2°55.433 13.747734 4.093316 34.154287 2.724529
2004-10-26 07:35:56 51°22.423 2°55.447 13.747734 4.093316 34.154287 2.724529
2004-10-26 07:36:03 51°22.446 2°55.464 13.759956 4.107865 34.289217 2.353725
2004-10-26 07:36:08 51°22.461 2°55.478 13.761154 4.099642 34.210497 2.994204
2004-10-26 07:36:11 51°22.471 2°55.486 13.764221 4.102278 34.234377 2.522272
2004-10-26 07:36:18 51°22.493 2°55.503 13.758758 4.1163 34.361671 3.095332
2004-10-26 07:36:22 51°22.506 2°55.513 13.766426 4.111345 34.311338 3.061623
2004-10-26 07:36:28 51°22.526 2°55.528 13.766426 4.111345 34.311338 3.061623
2004-10-26 07:36:33 51°22.541 2°55.541 13.76542 4.114297 34.331289 2.791947
2004-10-26 07:36:38 51°22.557 2°55.554 13.769589 4.115456 34.340723 2.555982
2004-10-26 07:36:42 51°22.57 2°55.564 13.767864 4.11029 34.291886 2.488563
2004-10-26 07:36:48 51°22.589 2°55.58 13.774093 4.107443 34.260553 2.791947
2004-10-26 07:36:52 51°22.602 2°55.59 13.772847 4.115245 34.334629 2.6234
2004-10-26 07:36:58 51°22.621 2°55.605 13.772847 4.115245 34.334629 2.6234
2004-10-26 07:37:02 51°22.634 2°55.615 13.775147 4.11514 34.330895 2.6234
2004-10-26 07:37:08 51°22.654 2°55.629 13.779459 4.111028 34.293266 2.724529
2004-10-26 07:37:12 51°22.667 2°55.638 13.779411 4.113769 34.317435 2.758238
2004-10-26 07:37:18 51°22.686 2°55.652 13.774955 4.113031 34.30987 2.522272
2004-10-26 07:37:22 51°22.699 2°55.661 13.785065 4.103121 34.214799 2.488563
2004-10-26 07:37:27 51°22.716 2°55.672 13.785065 4.103121 34.214799 2.488563
2004-10-26 07:37:31 51°22.729 2°55.681 13.781855 4.11282 34.305843 2.960494
2004-10-26 07:37:38 51°22.752 2°55.696 13.789999 4.117248 34.344354 2.387435
2004-10-26 07:37:43 51°22.768 2°55.707 13.780466 4.106811 34.246425 2.454853
2004-10-26 07:37:48 51°22.785 2°55.718 13.787364 4.113242 34.3029 2.454853
2004-10-26 07:37:53 51°22.801 2°55.729 13.79043 4.117776 34.343074 2.724529
2004-10-26 07:37:58 51°22.817 2°55.741 13.79043 4.117776 34.343074 2.724529
2004-10-26 07:38:03 51°22.834 2°55.752 13.78885 4.112188 34.287585 2.387435
2004-10-26 07:38:08 51°22.85 2°55.764 13.795652 4.113874 34.303984 2.65711
2004-10-26 07:38:12 51°22.863 2°55.772 13.791676 4.108497 34.253219 2.859366
2004-10-26 07:38:18 51°22.882 2°55.787 13.799388 4.105862 34.226618 2.488563
2004-10-26 07:38:23 51°22.899 2°55.797 13.795412 4.082773 34.011741 2.926785
2004-10-26 07:38:27 51°22.912 2°55.807 13.795412 4.082773 34.011741 2.926785
2004-10-26 07:38:31 51°22.925 2°55.815 13.800107 4.125788 34.408094 2.454853
2004-10-26 07:38:38 51°22.948 2°55.831 13.805758 4.120411 34.355248 2.65711
2004-10-26 07:38:42 51°22.962 2°55.839 13.801544 4.105334 34.216914 2.6234
2004-10-26 07:38:48 51°22.981 2°55.853 13.808871 4.124839 34.397187 3.19646
2004-10-26 07:38:51 51°22.991 2°55.859 13.813804 4.126421 34.410543 2.690819
2004-10-26 07:38:58 51°23.013 2°55.875 13.813804 4.126421 34.410543 2.690819
2004-10-26 07:39:02 51°23.026 2°55.884 13.812415 4.123047 34.376359 3.027913
2004-10-26 07:39:07 51°23.042 2°55.896 13.814475 4.124101 34.384804 3.027913
2004-10-26 07:39:11 51°23.055 2°55.905 13.815193 4.123996 34.381069 2.555982
2004-10-26 07:39:18 51°23.078 2°55.922 13.815289 4.116721 34.309202 2.758238
2004-10-26 07:39:23 51°23.094 2°55.934 13.819934 4.129478 34.426625 3.061623
2004-10-26 07:39:26 51°23.103 2°55.941 13.819934 4.129478 34.426625 3.061623
2004-10-26 07:39:32 51°23.123 2°55.956 13.817061 4.119146 34.328345 3.095332
2004-10-26 07:39:38 51°23.142 2°55.968 13.827834 4.128529 34.41572 2.6234
2004-10-26 07:39:43 51°23.158 2°55.981 13.828457 4.117353 34.311659 3.331298
2004-10-26 07:39:48 51°23.174 2°55.991 13.829749 4.129267 34.419839 3.162751
2004-10-26 07:39:53 51°23.19 2°56.004 13.845116 4.130005 34.427401 2.791947
2004-10-26 07:39:58 51°23.206 2°56.016 13.845116 4.130005 34.427401 2.791947
2004-10-26 07:40:03 51°23.222 2°56.027 13.839994 4.102487 34.166477 2.994204
2004-10-26 07:40:08 51°23.238 2°56.039 13.84392 4.127053 34.392339 2.825657
2004-10-26 07:40:11 51°23.248 2°56.046 13.843585 4.131587 34.430419 3.129042
2004-10-26 07:40:18 51°23.27 2°56.062 13.851913 4.113558 34.259191 2.825657
2004-10-26 07:40:22 51°23.283 2°56.071 13.859284 4.096478 34.098309 2.724529
2004-10-26 07:40:27 51°23.299 2°56.083 13.859284 4.096478 34.098309 2.724529
2004-10-26 07:40:30 51°23.309 2°56.09 13.867802 4.117037 34.286761 2.724529
2004-10-26 07:40:38 51°23.335 2°56.11 13.866605 4.133379 34.436776 2.926785
2004-10-26 07:40:42 51°23.348 2°56.119 13.866653 4.128845 34.391828 2.690819
2004-10-26 07:40:48 51°23.368 2°56.132 13.864883 4.123784 34.339931 2.893076
2004-10-26 07:40:52 51°23.381 2°56.141 13.875458 4.1338 34.425559 2.825657
2004-10-26 07:40:58 51°23.401 2°56.154 13.875458 4.1338 34.425559 2.825657
2004-10-26 07:41:02 51°23.414 2°56.163 13.879907 4.124417 34.336207 2.555982
2004-10-26 07:41:08 51°23.434 2°56.177 13.872348 4.130426 34.388671 2.724529
2004-10-26 07:41:12 51°23.447 2°56.186 13.878233 4.085196 33.967662 2.791947
2004-10-26 07:41:18 51°23.466 2°56.201 13.882491 4.126736 34.352289 2.6234
2004-10-26 07:41:22 51°23.479 2°56.209 13.885074 4.13127 34.389645 3.23017
2004-10-26 07:41:28 51°23.498 2°56.223 13.885074 4.13127 34.389645 3.23017
2004-10-26 07:41:31 51°23.508 2°56.23 13.886413 4.131586 34.391213 2.690819
2004-10-26 07:41:38 51°23.531 2°56.246 13.871869 4.100062 34.095505 2.690819
2004-10-26 07:41:43 51°23.547 2°56.258 13.871965 4.123995 34.316514 2.488563
2004-10-26 07:41:47 51°23.561 2°56.267 13.874596 4.134327 34.409835 2.758238
2004-10-26 07:41:51 51°23.574 2°56.275 13.871151 4.124311 34.316027 2.555982
2004-10-26 07:41:58 51°23.596 2°56.292 13.871151 4.124311 34.316027 2.555982
2004-10-26 07:42:03 51°23.613 2°56.302 13.872108 4.096793 34.064473 2.522272
2004-10-26 07:42:07 51°23.625 2°56.312 13.870051 4.10818 34.17296 2.522272
2004-10-26 07:42:12 51°23.642 2°56.323 13.867036 4.126104 34.340231 2.589691
2004-10-26 07:42:17 51°23.657 2°56.336 13.874692 4.135171 34.425929 2.421144
2004-10-26 07:42:23 51°23.677 2°56.348 13.861054 4.130637 34.385823 2.690819
2004-10-26 07:42:27 51°23.69 2°56.358 13.861054 4.130637 34.385823 2.690819
2004-10-26 07:42:31 51°23.703 2°56.367 13.865122 4.130321 34.381507 2.353725
2004-10-26 07:42:38 51°23.726 2°56.383 13.862203 4.134749 34.425445 2.589691
2004-10-26 07:42:43 51°23.742 2°56.394 13.856891 4.127685 34.359054 2.454853
2004-10-26 07:42:48 51°23.759 2°56.405 13.856747 4.124522 34.331013 2.488563
2004-10-26 07:42:51 51°23.768 2°56.413 13.867275 4.113768 34.233771 2.387435
2004-10-26 07:42:58 51°23.791 2°56.429 13.867275 4.113768 34.233771 2.387435
2004-10-26 07:43:03 51°23.807 2°56.44 13.857034 4.124628 34.334738 2.6234
2004-10-26 07:43:08 51°23.823 2°56.451 13.864356 4.126736 34.359154 2.555982
2004-10-26 07:43:11 51°23.833 2°56.457 13.853349 4.134222 34.428107 2.758238
2004-10-26 07:43:18 51°23.856 2°56.473 13.859954 4.116615 34.262287 2.960494
2004-10-26 07:43:22 51°23.869 2°56.481 13.858087 4.116404 34.261696 2.589691
2004-10-26 07:43:28 51°23.888 2°56.494 13.858087 4.116404 34.261696 2.589691
2004-10-26 07:43:30 51°23.894 2°56.498 13.869046 4.121043 34.304831 2.454853
2004-10-26 07:43:38 51°23.921 2°56.515 13.862777 4.129161 34.382398 2.690819
2004-10-26 07:43:43 51°23.937 2°56.525 13.855359 4.135382 34.438898 2.791947
2004-10-26 07:43:48 51°23.954 2°56.535 13.860193 4.117458 34.273553 2.488563
2004-10-26 07:43:52 51°23.967 2°56.543 13.855646 4.132641 34.409954 2.488563
2004-10-26 07:43:58 51°23.986 2°56.555 13.855646 4.132641 34.409954 2.488563
2004-10-26 07:44:02 51°24 2°56.563 13.858997 4.128634 34.374746 2.353725
2004-10-26 07:44:08 51°24.019 2°56.575 13.854019 4.12041 34.298948 2.522272
2004-10-26 07:44:12 51°24.032 2°56.583 13.85287 4.124628 34.340227 2.791947
2004-10-26 07:44:18 51°24.051 2°56.596 13.857465 4.125787 34.351701 2.454853
2004-10-26 07:44:22 51°24.064 2°56.604 13.855024 4.122835 34.322871 2.893076
2004-10-26 07:44:28 51°24.083 2°56.618 13.855024 4.122835 34.322871 2.893076
2004-10-26 07:44:32 51°24.096 2°56.626 13.864978 4.134749 34.435076 2.555982
2004-10-26 07:44:38 51°24.116 2°56.639 13.84392 4.120938 34.307964 2.555982
2004-10-26 07:44:43 51°24.133 2°56.648 13.842675 4.129267 34.387502 2.589691
2004-10-26 07:44:47 51°24.145 2°56.657 13.848994 4.131165 34.403097 2.589691
2004-10-26 07:44:51 51°24.158 2°56.664 13.854593 4.122941 34.325223 2.690819
2004-10-26 07:44:56 51°24.174 2°56.674 13.854593 4.122941 34.325223 2.690819
2004-10-26 07:45:03 51°24.197 2°56.689 13.845212 4.084248 33.965637 2.387435
2004-10-26 07:45:08 51°24.213 2°56.699 13.837218 4.133062 34.425572 2.454853
2004-10-26 07:45:12 51°24.226 2°56.707 13.838846 4.126947 34.36867 2.724529
2004-10-26 07:45:18 51°24.246 2°56.718 13.834728 4.126736 34.366021 2.252597
2004-10-26 07:45:23 51°24.262 2°56.729 13.842388 4.126104 34.36151 2.320016
2004-10-26 07:45:27 51°24.275 2°56.736 13.842388 4.126104 34.36151 2.320016
2004-10-26 07:45:33 51°24.294 2°56.75 13.834489 4.132008 34.422641 2.791947
2004-10-26 07:45:38 51°24.311 2°56.76 13.840665 4.11651 34.280486 2.522272
2004-10-26 07:45:43 51°24.327 2°56.771 13.823956 4.130427 34.41205 2.320016
2004-10-26 07:45:48 51°24.343 2°56.781 13.828361 4.10312 34.15733 2.454853
2004-10-26 07:45:52 51°24.356 2°56.789 13.832478 4.125682 34.369953 2.421144
2004-10-26 07:45:58 51°24.376 2°56.8 13.832478 4.125682 34.369953 2.421144
2004-10-26 07:46:02 51°24.389 2°56.808 13.825201 4.124944 34.362397 2.589691
2004-10-26 07:46:08 51°24.409 2°56.82 13.821945 4.123574 34.353076 2.488563
2004-10-26 07:46:12 51°24.422 2°56.827 13.817061 4.088781 34.030858 2.252597
2004-10-26 07:46:18 51°24.441 2°56.839 13.821083 4.115983 34.285865 2.421144
2004-10-26 07:46:22 51°24.454 2°56.846 13.819742 4.124944 34.369957 2.353725
2004-10-26 07:46:27 51°24.47 2°56.856 13.819742 4.124944 34.369957 2.353725
2004-10-26 07:46:33 51°24.49 2°56.868 13.815672 4.125893 34.381541 2.252597
2004-10-26 07:46:38 51°24.506 2°56.878 13.816917 4.11788 34.307642 2.488563
2004-10-26 07:46:42 51°24.519 2°56.885 13.820125 4.127159 34.396073 2.320016
2004-10-26 07:46:48 51°24.538 2°56.898 13.818593 4.108708 34.223659 2.286306
2004-10-26 07:46:52 51°24.551 2°56.905 13.816055 4.125261 34.38253 2.320016
2004-10-26 07:46:58 51°24.571 2°56.917 13.816055 4.125261 34.38253 2.320016
2004-10-26 07:47:03 51°24.587 2°56.925 13.814427 4.126631 34.395293 2.320016
2004-10-26 07:47:08 51°24.603 2°56.935 13.81208 4.119462 34.329228 2.353725
2004-10-26 07:47:11 51°24.613 2°56.941 13.821035 4.122203 34.352 2.387435
2004-10-26 07:47:18 51°24.635 2°56.956 13.81797 4.11166 34.256609 2.488563
2004-10-26 07:47:22 51°24.648 2°56.963 13.819599 4.125893 34.390485 2.421144
2004-10-26 07:47:28 51°24.667 2°56.977 13.819599 4.125893 34.390485 2.421144
2004-10-26 07:47:32 51°24.679 2°56.986 13.829845 4.101012 34.160264 2.421144
2004-10-26 07:47:38 51°24.699 2°56.999 13.834633 4.110817 34.248759 2.387435
2004-10-26 07:47:43 51°24.714 2°57.01 13.848036 4.115139 34.288304 2.589691
2004-10-26 07:47:48 51°24.73 2°57.021 13.850334 4.131271 34.438496 2.286306
2004-10-26 07:47:53 51°24.746 2°57.034 13.862059 4.127369 34.39666 2.522272
2004-10-26 07:47:58 51°24.762 2°57.045 13.862059 4.127369 34.39666 2.522272
2004-10-26 07:48:03 51°24.777 2°57.057 13.860241 4.093947 34.079558 2.286306
2004-10-26 07:48:06 51°24.787 2°57.064 13.868902 4.133801 34.44759 2.252597
2004-10-26 07:48:12 51°24.805 2°57.078 13.871438 4.125471 34.361806 2.488563
2004-10-26 07:48:18 51°24.824 2°57.092 13.87852 4.126736 34.367395 2.252597
2004-10-26 07:48:23 51°24.84 2°57.104 13.886031 4.13496 34.438415 2.825657
2004-10-26 07:48:28 51°24.856 2°57.116 13.886031 4.13496 34.438415 2.825657
2004-10-26 07:48:32 51°24.868 2°57.125 13.884261 4.111238 34.212302 2.320016
2004-10-26 07:48:38 51°24.887 2°57.139 13.893111 4.126104 34.34572 2.488563
2004-10-26 07:48:43 51°24.903 2°57.151 13.885887 4.126209 34.34327 2.387435
2004-10-26 07:48:48 51°24.919 2°57.162 13.88694 4.125049 34.329057 2.454853
2004-10-26 07:48:52 51°24.932 2°57.172 13.889714 4.137174 34.434933 2.353725
2004-10-26 07:48:57 51°24.947 2°57.184 13.889714 4.137174 34.434933 2.353725
2004-10-26 07:49:03 51°24.967 2°57.198 13.893732 4.125049 34.320831 2.589691
2004-10-26 07:49:07 51°24.979 2°57.208 13.893924 4.103225 34.118749 2.387435
2004-10-26 07:49:11 51°24.992 2°57.217 13.897798 4.136752 34.429636 2.488563
2004-10-26 07:49:18 51°25.014 2°57.233 13.90019 4.133905 34.400417 2.387435
2004-10-26 07:49:23 51°25.03 2°57.245 13.897894 4.136225 34.419235 2.421144
2004-10-26 07:49:28 51°25.046 2°57.255 13.897894 4.136225 34.419235 2.421144
2004-10-26 07:49:32 51°25.058 2°57.266 13.897272 4.136436 34.419821 2.488563
2004-10-26 07:49:38 51°25.077 2°57.279 13.902007 4.122519 34.289097 2.555982
2004-10-26 07:49:42 51°25.09 2°57.289 13.905642 4.129899 34.355625 2.353725
2004-10-26 07:49:48 51°25.109 2°57.303 13.905403 4.140653 34.454907 2.286306
2004-10-26 07:49:53 51°25.125 2°57.315 13.908081 4.134327 34.396097 2.791947
2004-10-26 07:49:55 51°25.131 2°57.32 13.908081 4.134327 34.396097 2.791947
2004-10-26 07:50:03 51°25.157 2°57.34 13.906072 4.133484 34.386884 2.454853
2004-10-26 07:50:08 51°25.172 2°57.352 13.920227 4.124627 34.301843 2.252597
2004-10-26 07:50:11 51°25.182 2°57.36 13.914967 4.103962 34.107898 2.522272
2004-10-26 07:50:18 51°25.204 2°57.376 13.915302 4.134327 34.388546 2.353725
2004-10-26 07:50:23 51°25.22 2°57.389 13.913676 4.134116 34.386586 2.421144
2004-10-26 07:50:28 51°25.236 2°57.399 13.913676 4.134116 34.386586 2.421144
2004-10-26 07:50:31 51°25.246 2°57.407 13.931415 4.140442 34.441946 2.555982
2004-10-26 07:50:36 51°25.261 2°57.42 13.94891 4.130637 34.350827 2.252597
2004-10-26 07:50:42 51°25.281 2°57.434 13.919606 4.130953 34.351024 2.589691
2004-10-26 07:50:48 51°25.299 2°57.449 13.925152 4.128001 34.322915 2.286306
2004-10-26 07:50:51 51°25.309 2°57.455 13.937199 4.133378 34.370125 2.690819
2004-10-26 07:50:58 51°25.331 2°57.474 13.937199 4.133378 34.370125 2.690819
2004-10-26 07:51:03 51°25.348 2°57.486 13.927686 4.121886 34.255868 2.488563
2004-10-26 07:51:08 51°25.364 2°57.498 13.935335 4.142761 34.445636 2.286306
2004-10-26 07:51:10 51°25.37 2°57.502 13.925439 4.132745 34.356024 2.555982
2004-10-26 07:51:18 51°25.396 2°57.521 13.926204 4.134327 34.370713 2.555982
2004-10-26 07:51:23 51°25.412 2°57.534 13.931702 4.13148 34.342218 2.320016
2004-10-26 07:51:26 51°25.421 2°57.542 13.931702 4.13148 34.342218 2.320016
2004-10-26 07:51:31 51°25.437 2°57.554 13.931176 4.142129 34.441132 2.353725
2004-10-26 07:51:38 51°25.46 2°57.571 13.927925 4.130215 34.332523 2.353725
2004-10-26 07:51:47 51°25.489 2°57.594 13.940737 4.137068 34.39549 2.387435
2004-10-26 07:51:51 51°25.501 2°57.604 13.933662 4.13401 34.362977 2.555982
2004-10-26 07:51:58 51°25.523 2°57.623 13.933662 4.13401 34.362977 2.555982
2004-10-26 07:52:02 51°25.536 2°57.632 13.951826 4.133167 34.3572 2.252597
2004-10-26 07:52:06 51°25.549 2°57.642 13.931511 4.139809 34.420269 2.555982
2004-10-26 07:52:10 51°25.561 2°57.653 13.939064 4.141602 34.435548 2.488563
2004-10-26 07:52:18 51°25.587 2°57.673 13.927256 4.135803 34.378938 2.589691
2004-10-26 07:52:22 51°25.6 2°57.682 13.946234 4.138755 34.402927 2.353725
2004-10-26 07:52:28 51°25.619 2°57.698 13.946234 4.138755 34.402927 2.353725
2004-10-26 07:52:32 51°25.632 2°57.707 13.943844 4.14118 34.426823 2.421144
2004-10-26 07:52:38 51°25.651 2°57.723 13.932132 4.139493 34.411154 2.488563
2004-10-26 07:52:43 51°25.667 2°57.735 13.936004 4.143605 34.452785 2.454853
2004-10-26 07:52:48 51°25.682 2°57.749 13.931941 4.140969 34.422806 2.522272
2004-10-26 07:52:51 51°25.692 2°57.756 13.928929 4.116508 34.192317 2.758238
2004-10-26 07:52:58 51°25.715 2°57.773 13.928929 4.116508 34.192317 2.758238
2004-10-26 07:53:03 51°25.731 2°57.786 13.944609 4.145503 34.462171 2.589691
2004-10-26 07:53:07 51°25.743 2°57.795 13.928738 4.141812 34.43064 2.252597
2004-10-26 07:53:11 51°25.756 2°57.806 13.938681 4.142234 34.437991 2.387435
2004-10-26 07:53:18 51°25.779 2°57.824 13.92979 4.134854 34.36944 2.252597
2004-10-26 07:53:22 51°25.791 2°57.834 13.931176 4.136857 34.385302 2.589691
2004-10-26 07:53:28 51°25.81 2°57.849 13.931176 4.136857 34.385302 2.589691
2004-10-26 07:53:32 51°25.824 2°57.86 13.929598 4.141918 34.434366 2.353725
2004-10-26 07:53:38 51°25.843 2°57.875 13.92606 4.138122 34.399796 2.185178
2004-10-26 07:53:43 51°25.859 2°57.887 13.928929 4.138544 34.403027 2.421144
2004-10-26 07:53:48 51°25.875 2°57.901 13.937725 4.144237 34.458663 2.522272
2004-10-26 07:53:53 51°25.892 2°57.913 13.939398 4.135381 34.377763 2.353725
2004-10-26 07:53:58 51°25.908 2°57.925 13.939398 4.135381 34.377763 2.353725
2004-10-26 07:54:03 51°25.924 2°57.939 13.939303 4.132745 34.353968 2.555982
2004-10-26 07:54:08 51°25.941 2°57.95 13.950918 4.132956 34.355926 2.320016
2004-10-26 07:54:12 51°25.954 2°57.961 13.951921 4.142761 34.445636 2.286306
2004-10-26 07:54:18 51°25.974 2°57.975 13.94848 4.137384 34.392255 2.421144
2004-10-26 07:54:22 51°25.986 2°57.986 13.954168 4.141074 34.423099 2.488563
2004-10-26 07:54:27 51°26.003 2°57.997 13.954168 4.141074 34.423099 2.488563
2004-10-26 07:54:31 51°26.015 2°58.008 13.939398 4.140125 34.411541 2.724529
2004-10-26 07:54:38 51°26.038 2°58.025 13.938347 4.128633 34.302102 2.353725
2004-10-26 07:54:43 51°26.054 2°58.037 13.932467 4.135381 34.361318 2.421144
2004-10-26 07:54:48 51°26.07 2°58.049 13.940211 4.138122 34.385397 2.65711
2004-10-26 07:54:49 51°26.073 2°58.052 13.929598 4.140969 34.4132 2.488563
2004-10-26 07:54:58 51°26.101 2°58.075 13.929598 4.140969 34.4132 2.488563
2004-10-26 07:55:02 51°26.114 2°58.085 13.923048 4.141074 34.417609 2.387435
2004-10-26 07:55:08 51°26.132 2°58.101 13.931128 4.144975 34.458648 2.488563
2004-10-26 07:55:12 51°26.145 2°58.111 13.921422 4.117984 34.20874 2.320016
2004-10-26 07:55:18 51°26.164 2°58.127 13.93304 4.142867 34.443181 2.522272
2004-10-26 07:55:23 51°26.18 2°58.139 13.926204 4.144027 34.456016 2.724529
2004-10-26 07:55:28 51°26.196 2°58.152 13.926204 4.144027 34.456016 2.724529
2004-10-26 07:55:31 51°26.206 2°58.158 13.928642 4.138755 34.408416 2.859366